| time (UTC) | temp C | wind direction | speed KPH | gust KPH | rain 1hr cm | rain 24hr cm | rain mn cm | humidity % | barometer mb |
| 20260506153521 | 11 | 292 | 1.6 | 6.4 | 0.00 | 0.00 | 0.00 | 87 | 1013.8 |
| 20260506153509 | 23 | 186 | 6.4 | 16.1 | 0.00 | 0.00 | 0.00 | 65 | 1012.6 |
| 20260506153422 | 23 | 78 | 6.4 | 16.1 | 0.00 | 0.00 | 0.00 | 65 | 1012.6 |
| 20260506153312 | 23 | 208 | 6.4 | 16.1 | 0.00 | 0.00 | 0.00 | 64 | 1012.6 |
| 20260506153106 | 23 | 225 | 6.4 | 16.1 | 0.00 | 0.00 | 0.00 | 64 | 1012.6 |
| 20260506152919 | 23 | 140 | 6.4 | 16.1 | 0.00 | 0.00 | 0.00 | 64 | 1012.6 |
| 20260506152911 | 23 | 153 | 6.4 | 16.1 | 0.00 | 0.00 | 0.00 | 64 | 1012.6 |
| 20260506152716 | 23 | 157 | 6.4 | 16.1 | 0.00 | 0.00 | 0.00 | 63 | 1012.6 |
| 20260506152545 | 23 | 223 | 6.4 | 16.1 | 0.00 | 0.00 | 0.00 | 63 | 1012.6 |
| 20260506152505 | 23 | 210 | 6.4 | 16.1 | 0.00 | 0.00 | 0.00 | 63 | 1012.6 |
| 20260506152407 | 23 | 191 | 6.4 | 16.1 | 0.00 | 0.00 | 0.00 | 63 | 1012.6 |
| 20260506152243 | 23 | 182 | 6.4 | 16.1 | 0.00 | 0.00 | 0.00 | 63 | 1012.6 |
| 20260506151903 | 23 | 136 | 4.8 | 16.1 | 0.00 | 0.00 | 0.00 | 63 | 1012.6 |
| 20260506151701 | 23 | 224 | 4.8 | 12.9 | 0.00 | 0.00 | 0.00 | 63 | 1012.6 |
| 20260506151511 | 23 | 168 | 4.8 | 16.1 | 0.00 | 0.00 | 0.00 | 63 | 1012.6 |
| 20260506151429 | 23 | 199 | 6.4 | 16.1 | 0.00 | 0.00 | 0.00 | 64 | 1012.6 |
| 20260506151323 | 23 | 189 | 6.4 | 16.1 | 0.00 | 0.00 | 0.00 | 64 | 1012.6 |
| 20260506151204 | 23 | 156 | 8.0 | 16.1 | 0.00 | 0.00 | 0.00 | 64 | 1012.5 |
| 20260506151046 | 23 | 176 | 9.7 | 16.1 | 0.00 | 0.00 | 0.00 | 64 | 1012.5 |
| 20260506151031 | 23 | 281 | 9.7 | 16.1 | 0.00 | 0.00 | 0.00 | 64 | 1012.5 |
| 20260506150906 | 23 | 196 | 8.0 | 16.1 | 0.00 | 0.00 | 0.00 | 64 | 1012.6 |
| 20260506150733 | 23 | 157 | 8.0 | 16.1 | 0.00 | 0.00 | 0.00 | 63 | 1012.6 |
| 20260506150704 | 23 | 216 | 8.0 | 16.1 | 0.00 | 0.00 | 0.00 | 63 | 1012.6 |
| 20260506150559 | 23 | 214 | 6.4 | 17.7 | 0.00 | 0.00 | 0.00 | 63 | 1012.6 |
| 20260506150430 | 23 | 199 | 6.4 | 17.7 | 0.00 | 0.00 | 0.00 | 63 | 1012.6 |
| 20260506150052 | 23 | 272 | 6.4 | 17.7 | 0.00 | 0.00 | 0.00 | 63 | 1012.7 |
| 20260506145929 | 23 | 259 | 6.4 | 17.7 | 0.00 | 0.00 | 0.00 | 62 | 1012.6 |
| 20260506145804 | 23 | 190 | 6.4 | 17.7 | 0.00 | 0.00 | 0.00 | 62 | 1012.6 |
| 20260506145735 | 23 | 168 | 6.4 | 17.7 | 0.00 | 0.00 | 0.00 | 63 | 1012.6 |
| 20260506145640 | 23 | 217 | 6.4 | 14.5 | 0.00 | 0.00 | 0.00 | 62 | 1012.6 |
| 20260506145453 | 23 | 161 | 6.4 | 14.5 | 0.00 | 0.00 | 0.00 | 61 | 1012.6 |
| 20260506145309 | 23 | 138 | 6.4 | 12.9 | 0.00 | 0.00 | 0.00 | 62 | 1012.6 |
| 20260506145248 | 23 | 133 | 6.4 | 12.9 | 0.00 | 0.00 | 0.00 | 62 | 1012.6 |
| 20260506145124 | 23 | 165 | 6.4 | 12.9 | 0.00 | 0.00 | 0.00 | 62 | 1012.6 |
| 20260506144948 | 23 | 195 | 6.4 | 12.9 | 0.00 | 0.00 | 0.00 | 62 | 1012.7 |
| 20260506144553 | 23 | 157 | 8.0 | 12.9 | 0.00 | 0.00 | 0.00 | 62 | 1012.6 |
| 20260506144412 | 23 | 194 | 8.0 | 12.9 | 0.00 | 0.00 | 0.00 | 62 | 1012.6 |
| 20260506144007 | 23 | 207 | 6.4 | 12.9 | 0.00 | 0.00 | 0.00 | 61 | 1012.7 |
| 20260506143852 | 24 | 171 | 8.0 | 12.9 | 0.00 | 0.00 | 0.00 | 61 | 1012.7 |
| 20260506143728 | 24 | 247 | 8.0 | 14.5 | 0.00 | 0.00 | 0.00 | 62 | 1012.7 |
| 20260506143646 | 24 | 211 | 8.0 | 14.5 | 0.00 | 0.00 | 0.00 | 62 | 1012.7 |
| 20260506143534 | 24 | 252 | 8.0 | 17.7 | 0.00 | 0.00 | 0.00 | 61 | 1012.7 |
| 20260506143352 | 24 | 196 | 8.0 | 17.7 | 0.00 | 0.00 | 0.00 | 61 | 1012.7 |
| 20260506143252 | 24 | 206 | 8.0 | 17.7 | 0.00 | 0.00 | 0.00 | 61 | 1012.7 |
| 20260506143227 | 24 | 232 | 8.0 | 17.7 | 0.00 | 0.00 | 0.00 | 60 | 1012.7 |
| 20260506143049 | 24 | 164 | 8.0 | 17.7 | 0.00 | 0.00 | 0.00 | 60 | 1012.8 |
| 20260506142917 | 24 | 231 | 6.4 | 17.7 | 0.00 | 0.00 | 0.00 | 59 | 1012.8 |
| 20260506142902 | 24 | 173 | 6.4 | 17.7 | 0.00 | 0.00 | 0.00 | 59 | 1012.8 |
| 20260506142747 | 24 | 180 | 6.4 | 16.1 | 0.00 | 0.00 | 0.00 | 61 | 1012.8 |
| 20260506142612 | 24 | 195 | 6.4 | 16.1 | 0.00 | 0.00 | 0.00 | 60 | 1012.6 |
| 20260506142138 | 24 | 267 | 6.4 | 16.1 | 0.00 | 0.00 | 0.00 | 60 | 1012.7 |
| 20260506142018 | 24 | 206 | 8.0 | 16.1 | 0.00 | 0.00 | 0.00 | 60 | 1012.7 |
| 20260506141846 | 24 | 146 | 6.4 | 16.1 | 0.00 | 0.00 | 0.00 | 60 | 1012.8 |
| 20260506141820 | 24 | 196 | 6.4 | 16.1 | 0.00 | 0.00 | 0.00 | 60 | 1012.8 |
| 20260506141649 | 24 | 165 | 8.0 | 16.1 | 0.00 | 0.00 | 0.00 | 60 | 1012.7 |
| 20260506141521 | 24 | 171 | 8.0 | 16.1 | 0.00 | 0.00 | 0.00 | 59 | 1012.8 |
| 20260506141425 | 24 | 156 | 8.0 | 16.1 | 0.00 | 0.00 | 0.00 | 60 | 1012.8 |
| 20260506141325 | 24 | 203 | 8.0 | 16.1 | 0.00 | 0.00 | 0.00 | 60 | 1012.8 |
| 20260506141133 | 24 | 198 | 8.0 | 14.5 | 0.00 | 0.00 | 0.00 | 60 | 1012.8 |
| 20260506140959 | 24 | 195 | 8.0 | 17.7 | 0.00 | 0.00 | 0.00 | 60 | 1012.8 |
| 20260506140553 | 24 | 206 | 8.0 | 20.9 | 0.00 | 0.00 | 0.00 | 60 | 1012.8 |
| 20260506140422 | 24 | 210 | 9.7 | 20.9 | 0.00 | 0.00 | 0.00 | 60 | 1012.8 |
| 20260506135943 | 24 | 146 | 9.7 | 20.9 | 0.00 | 0.00 | 0.00 | 61 | 1012.8 |
| 20260506135802 | 24 | 197 | 9.7 | 20.9 | 0.00 | 0.00 | 0.00 | 60 | 1012.8 |
| 20260506135622 | 25 | 219 | 9.7 | 22.5 | 0.00 | 0.00 | 0.00 | 60 | 1012.8 |
| 20260506135250 | 12 | 333 | 1.6 | 6.4 | 0.00 | 0.00 | 0.00 | 86 | 1013.7 |
| 20260506135205 | 25 | 167 | 9.7 | 22.5 | 0.00 | 0.00 | 0.00 | 60 | 1012.8 |
| 20260506135006 | 25 | 219 | 9.7 | 22.5 | 0.00 | 0.00 | 0.00 | 60 | 1012.8 |
| 20260506134858 | 25 | 135 | 9.7 | 22.5 | 0.00 | 0.00 | 0.00 | 59 | 1012.8 |
| 20260506134815 | 25 | 192 | 9.7 | 22.5 | 0.00 | 0.00 | 0.00 | 59 | 1012.8 |
| 20260506134620 | 25 | 180 | 9.7 | 22.5 | 0.00 | 0.00 | 0.00 | 58 | 1012.8 |
| 20260506134542 | 12 | 311 | 3.2 | 6.4 | 0.00 | 0.00 | 0.00 | 85 | 1013.4 |
| 20260506134419 | 25 | 182 | 8.0 | 20.9 | 0.00 | 0.00 | 0.00 | 58 | 1012.8 |
| 20260506134402 | 25 | 207 | 8.0 | 20.9 | 0.00 | 0.00 | 0.00 | 58 | 1012.8 |
| 20260506134239 | 25 | 168 | 8.0 | 20.9 | 0.00 | 0.00 | 0.00 | 57 | 1012.8 |
| 20260506134054 | 25 | 168 | 8.0 | 20.9 | 0.00 | 0.00 | 0.00 | 57 | 1012.8 |
| 20260506133945 | 25 | 154 | 8.0 | 20.9 | 0.00 | 0.00 | 0.00 | 56 | 1012.8 |
| 20260506133853 | 25 | 163 | 8.0 | 20.9 | 0.00 | 0.00 | 0.00 | 56 | 1012.8 |
| 20260506133719 | 25 | 168 | 6.4 | 16.1 | 0.00 | 0.00 | 0.00 | 56 | 1012.8 |
| 20260506133400 | 25 | 146 | 6.4 | 16.1 | 0.00 | 0.00 | 0.00 | 57 | 1012.8 |
| 20260506133347 | 25 | 175 | 6.4 | 16.1 | 0.00 | 0.00 | 0.00 | 57 | 1012.8 |
| 20260506133203 | 25 | 168 | 6.4 | 16.1 | 0.00 | 0.00 | 0.00 | 56 | 1012.7 |
| 20260506133034 | 25 | 155 | 6.4 | 17.7 | 0.00 | 0.00 | 0.00 | 57 | 1012.8 |
| 20260506132944 | 25 | 172 | 8.0 | 17.7 | 0.00 | 0.00 | 0.00 | 58 | 1012.8 |
| 20260506132849 | 25 | 210 | 8.0 | 17.7 | 0.00 | 0.00 | 0.00 | 58 | 1012.8 |
| 20260506132605 | 25 | 209 | 8.0 | 17.7 | 0.00 | 0.00 | 0.00 | 58 | 1012.7 |
| 20260506132411 | 25 | 229 | 8.0 | 17.7 | 0.00 | 0.00 | 0.00 | 57 | 1012.8 |
| 20260506132349 | 25 | 219 | 8.0 | 17.7 | 0.00 | 0.00 | 0.00 | 57 | 1012.8 |
| 20260506132217 | 25 | 157 | 8.0 | 17.7 | 0.00 | 0.00 | 0.00 | 57 | 1012.8 |
| 20260506132009 | 25 | 130 | 8.0 | 16.1 | 0.00 | 0.00 | 0.00 | 57 | 1012.8 |
| 20260506131900 | 25 | 173 | 8.0 | 16.1 | 0.00 | 0.00 | 0.00 | 56 | 1012.8 |
| 20260506131829 | 26 | 151 | 8.0 | 16.1 | 0.00 | 0.00 | 0.00 | 56 | 1012.9 |
| 20260506131652 | 26 | 163 | 8.0 | 16.1 | 0.00 | 0.00 | 0.00 | 56 | 1012.9 |
| 20260506131517 | 26 | 117 | 6.4 | 16.1 | 0.00 | 0.00 | 0.00 | 55 | 1012.9 |
| 20260506131504 | 26 | 173 | 6.4 | 16.1 | 0.00 | 0.00 | 0.00 | 55 | 1012.9 |
| 20260506131327 | 26 | 200 | 6.4 | 16.1 | 0.00 | 0.00 | 0.00 | 56 | 1013.0 |
| 20260506131136 | 26 | 119 | 6.4 | 14.5 | 0.00 | 0.00 | 0.00 | 56 | 1013.0 |
| 20260506131033 | 26 | 165 | 6.4 | 14.5 | 0.00 | 0.00 | 0.00 | 56 | 1012.9 |
| 20260506131004 | 26 | 232 | 6.4 | 16.1 | 0.00 | 0.00 | 0.00 | 55 | 1012.9 |
| 20260506130827 | 26 | 176 | 6.4 | 16.1 | 0.00 | 0.00 | 0.00 | 55 | 1013.1 |
| 20260506130654 | 25 | 141 | 6.4 | 16.1 | 0.00 | 0.00 | 0.00 | 57 | 1013.0 |
| 20260506130240 | 25 | 187 | 6.4 | 16.1 | 0.00 | 0.00 | 0.00 | 57 | 1013.0 |
| 20260506130036 | 25 | 154 | 8.0 | 16.1 | 0.00 | 0.00 | 0.00 | 56 | 1013.1 |
| 20260506125936 | 25 | 180 | 8.0 | 16.1 | 0.00 | 0.00 | 0.00 | 56 | 1013.1 |
| 20260506125837 | 25 | 219 | 8.0 | 16.1 | 0.00 | 0.00 | 0.00 | 55 | 1013.1 |
| 20260506125651 | 25 | 168 | 8.0 | 17.7 | 0.00 | 0.00 | 0.00 | 56 | 1013.1 |
| 20260506125511 | 25 | 194 | 8.0 | 17.7 | 0.00 | 0.00 | 0.00 | 55 | 1013.1 |
| 20260506125457 | 25 | 148 | 8.0 | 17.7 | 0.00 | 0.00 | 0.00 | 55 | 1013.1 |
| 20260506125319 | 25 | 99 | 8.0 | 17.7 | 0.00 | 0.00 | 0.00 | 55 | 1013.1 |
| 20260506125116 | 26 | 168 | 8.0 | 17.7 | 0.00 | 0.00 | 0.00 | 54 | 1013.1 |
| 20260506125026 | 26 | 207 | 8.0 | 17.7 | 0.00 | 0.00 | 0.00 | 54 | 1013.1 |
| 20260506124950 | 26 | 203 | 8.0 | 17.7 | 0.00 | 0.00 | 0.00 | 54 | 1013.1 |
| 20260506124814 | 26 | 177 | 8.0 | 17.7 | 0.00 | 0.00 | 0.00 | 54 | 1013.2 |
| 20260506124620 | 26 | 203 | 8.0 | 17.7 | 0.00 | 0.00 | 0.00 | 54 | 1013.2 |
| 20260506124225 | 26 | 180 | 8.0 | 17.7 | 0.00 | 0.00 | 0.00 | 54 | 1013.2 |
| 20260506124019 | 26 | 173 | 8.0 | 17.7 | 0.00 | 0.00 | 0.00 | 53 | 1013.1 |
| 20260506123919 | 26 | 155 | 8.0 | 17.7 | 0.00 | 0.00 | 0.00 | 52 | 1013.1 |
| 20260506123840 | 26 | 138 | 6.4 | 17.7 | 0.00 | 0.00 | 0.00 | 53 | 1013.1 |
| 20260506123714 | 26 | 196 | 6.4 | 16.1 | 0.00 | 0.00 | 0.00 | 52 | 1013.2 |
| 20260506123536 | 26 | 183 | 6.4 | 16.1 | 0.00 | 0.00 | 0.00 | 52 | 1013.2 |
| 20260506123521 | 26 | 232 | 6.4 | 17.7 | 0.00 | 0.00 | 0.00 | 52 | 1013.2 |
| 20260506123412 | 26 | 130 | 8.0 | 17.7 | 0.00 | 0.00 | 0.00 | 52 | 1013.2 |
| 20260506123201 | 26 | 180 | 8.0 | 19.3 | 0.00 | 0.00 | 0.00 | 53 | 1013.2 |
| 20260506123056 | 26 | 141 | 8.0 | 19.3 | 0.00 | 0.00 | 0.00 | 53 | 1013.2 |
| 20260506123022 | 26 | 173 | 8.0 | 19.3 | 0.00 | 0.00 | 0.00 | 53 | 1013.2 |
| 20260506122837 | 26 | 183 | 8.0 | 19.3 | 0.00 | 0.00 | 0.00 | 53 | 1013.2 |
| 20260506122645 | 26 | 151 | 8.0 | 19.3 | 0.00 | 0.00 | 0.00 | 54 | 1013.1 |
| 20260506122633 | 26 | 159 | 8.0 | 19.3 | 0.00 | 0.00 | 0.00 | 54 | 1013.1 |
| 20260506122508 | 26 | 202 | 8.0 | 19.3 | 0.00 | 0.00 | 0.00 | 54 | 1013.2 |
| 20260506122338 | 26 | 180 | 8.0 | 16.1 | 0.00 | 0.00 | 0.00 | 54 | 1013.2 |
| 20260506122252 | 26 | 196 | 8.0 | 16.1 | 0.00 | 0.00 | 0.00 | 55 | 1013.2 |
| 20260506122156 | 26 | 259 | 8.0 | 16.1 | 0.00 | 0.00 | 0.00 | 55 | 1013.2 |
| 20260506122004 | 26 | 177 | 8.0 | 16.1 | 0.00 | 0.00 | 0.00 | 55 | 1013.2 |
| 20260506121734 | 26 | 171 | 8.0 | 25.7 | 0.00 | 0.00 | 0.00 | 54 | 1013.3 |
| 20260506121709 | 26 | 156 | 8.0 | 25.7 | 0.00 | 0.00 | 0.00 | 54 | 1013.3 |
| 20260506121517 | 26 | 184 | 8.0 | 25.7 | 0.00 | 0.00 | 0.00 | 53 | 1013.3 |
| 20260506121336 | 26 | 221 | 8.0 | 25.7 | 0.00 | 0.00 | 0.00 | 53 | 1013.3 |
| 20260506121247 | 26 | 169 | 8.0 | 25.7 | 0.00 | 0.00 | 0.00 | 53 | 1013.3 |
| 20260506121145 | 26 | 130 | 8.0 | 25.7 | 0.00 | 0.00 | 0.00 | 53 | 1013.3 |
| 20260506120901 | 26 | 231 | 8.0 | 25.7 | 0.00 | 0.00 | 0.00 | 52 | 1013.3 |
| 20260506120648 | 26 | 150 | 8.0 | 16.1 | 0.00 | 0.00 | 0.00 | 52 | 1013.3 |
| 20260506120642 | 26 | 113 | 8.0 | 16.1 | 0.00 | 0.00 | 0.00 | 52 | 1013.3 |
| 20260506120506 | 26 | 155 | 8.0 | 16.1 | 0.00 | 0.00 | 0.00 | 52 | 1013.4 |
| 20260506120235 | 26 | 157 | 8.0 | 17.7 | 0.00 | 0.00 | 0.00 | 52 | 1013.3 |
| 20260506120137 | 26 | 199 | 8.0 | 17.7 | 0.00 | 0.00 | 0.00 | 52 | 1013.4 |
| 20260506120019 | 26 | 200 | 6.4 | 17.7 | 0.00 | 0.00 | 0.00 | 52 | 1013.4 |
| 20260506115712 | 26 | 100 | 8.0 | 17.7 | 0.00 | 0.00 | 0.00 | 51 | 1013.3 |
| 20260506115530 | 26 | 122 | 8.0 | 17.7 | 0.00 | 0.00 | 0.00 | 51 | 1013.3 |
| 20260506115510 | 26 | 111 | 8.0 | 17.7 | 0.00 | 0.00 | 0.00 | 51 | 1013.4 |
| 20260506115240 | 26 | 198 | 8.0 | 17.7 | 0.00 | 0.00 | 0.00 | 50 | 1013.4 |
| 20260506115031 | 26 | 202 | 6.4 | 16.1 | 0.00 | 0.00 | 0.00 | 50 | 1013.4 |
| 20260506114934 | 26 | 117 | 6.4 | 16.1 | 0.00 | 0.00 | 0.00 | 50 | 1013.4 |
| 20260506114846 | 26 | 214 | 6.4 | 16.1 | 0.00 | 0.00 | 0.00 | 51 | 1013.4 |
| 20260506114657 | 26 | 184 | 6.4 | 16.1 | 0.00 | 0.00 | 0.00 | 51 | 1013.5 |
| 20260506114503 | 26 | 178 | 6.4 | 16.1 | 0.00 | 0.00 | 0.00 | 50 | 1013.5 |
| 20260506114433 | 26 | 212 | 6.4 | 16.1 | 0.00 | 0.00 | 0.00 | 50 | 1013.5 |
| 20260506114304 | 26 | 165 | 6.4 | 16.1 | 0.00 | 0.00 | 0.00 | 49 | 1013.5 |
| 20260506114126 | 26 | 19 | 6.4 | 16.1 | 0.00 | 0.00 | 0.00 | 49 | 1013.5 |
| 20260506114037 | 26 | 194 | 6.4 | 16.1 | 0.00 | 0.00 | 0.00 | 49 | 1013.5 |
| 20260506113927 | 26 | 146 | 6.4 | 16.1 | 0.00 | 0.00 | 0.00 | 49 | 1013.5 |
| 20260506113703 | 26 | 188 | 6.4 | 16.1 | 0.00 | 0.00 | 0.00 | 48 | 1013.5 |
| 20260506113435 | 26 | 130 | 6.4 | 16.1 | 0.00 | 0.00 | 0.00 | 49 | 1013.5 |
| 20260506113425 | 26 | 139 | 6.4 | 16.1 | 0.00 | 0.00 | 0.00 | 49 | 1013.5 |
| 20260506113125 | 26 | 117 | 4.8 | 16.1 | 0.00 | 0.00 | 0.00 | 50 | 1013.5 |
| 20260506112910 | 26 | 210 | 4.8 | 12.9 | 0.00 | 0.00 | 0.00 | 50 | 1013.5 |
| 20260506112822 | 26 | 214 | 4.8 | 12.9 | 0.00 | 0.00 | 0.00 | 50 | 1013.5 |
| 20260506112707 | 26 | 123 | 6.4 | 12.9 | 0.00 | 0.00 | 0.00 | 50 | 1013.5 |
| 20260506112518 | 26 | 161 | 6.4 | 14.5 | 0.00 | 0.00 | 0.00 | 50 | 1013.5 |
| 20260506112346 | 26 | 200 | 6.4 | 14.5 | 0.00 | 0.00 | 0.00 | 49 | 1013.5 |
| 20260506112331 | 26 | 210 | 6.4 | 14.5 | 0.00 | 0.00 | 0.00 | 49 | 1013.5 |
| 20260506112144 | 26 | 180 | 6.4 | 14.5 | 0.00 | 0.00 | 0.00 | 49 | 1013.5 |
| 20260506111951 | 26 | 162 | 8.0 | 14.5 | 0.00 | 0.00 | 0.00 | 48 | 1013.6 |
| 20260506111849 | 26 | 202 | 6.4 | 14.5 | 0.00 | 0.00 | 0.00 | 48 | 1013.6 |
| 20260506111755 | 26 | 167 | 6.4 | 14.5 | 0.00 | 0.00 | 0.00 | 48 | 1013.6 |
| 20260506111546 | 26 | 117 | 6.4 | 14.5 | 0.00 | 0.00 | 0.00 | 48 | 1013.6 |
| 20260506111430 | 26 | 207 | 6.4 | 14.5 | 0.00 | 0.00 | 0.00 | 47 | 1013.7 |
| 20260506111419 | 26 | 202 | 6.4 | 14.5 | 0.00 | 0.00 | 0.00 | 47 | 1013.7 |
| 20260506111254 | 26 | 159 | 6.4 | 12.9 | 0.00 | 0.00 | 0.00 | 47 | 1013.7 |
| 20260506111053 | 26 | 130 | 6.4 | 14.5 | 0.00 | 0.00 | 0.00 | 47 | 1013.7 |
| 20260506111018 | 26 | 138 | 6.4 | 14.5 | 0.00 | 0.00 | 0.00 | 47 | 1013.7 |
| 20260506110927 | 26 | 161 | 6.4 | 16.1 | 0.00 | 0.00 | 0.00 | 47 | 1013.6 |
| 20260506110758 | 26 | 154 | 6.4 | 16.1 | 0.00 | 0.00 | 0.00 | 46 | 1013.7 |
| 20260506110602 | 26 | 118 | 6.4 | 16.1 | 0.00 | 0.00 | 0.00 | 47 | 1013.7 |
| 20260506110546 | 26 | 192 | 6.4 | 16.1 | 0.00 | 0.00 | 0.00 | 47 | 1013.7 |
| 20260506110431 | 26 | 161 | 6.4 | 16.1 | 0.00 | 0.00 | 0.00 | 46 | 1013.7 |
| 20260506110240 | 26 | 111 | 6.4 | 16.1 | 0.00 | 0.00 | 0.00 | 45 | 1013.7 |
| 20260506110205 | 26 | 76 | 6.4 | 16.1 | 0.00 | 0.00 | 0.00 | 46 | 1013.7 |
| 20260506110007 | 26 | 161 | 4.8 | 14.5 | 0.00 | 0.00 | 0.00 | 46 | 1013.7 |
| 20260506105850 | 26 | 180 | 4.8 | 14.5 | 0.00 | 0.00 | 0.00 | 45 | 1013.8 |
| 20260506105749 | 26 | 157 | 4.8 | 14.5 | 0.00 | 0.00 | 0.00 | 46 | 1013.8 |
| 20260506105735 | 26 | 144 | 4.8 | 14.5 | 0.00 | 0.00 | 0.00 | 46 | 1013.8 |
| 20260506105606 | 26 | 217 | 4.8 | 14.5 | 0.00 | 0.00 | 0.00 | 46 | 1013.7 |
| 20260506105442 | 26 | 194 | 4.8 | 14.5 | 0.00 | 0.00 | 0.00 | 45 | 1013.7 |
| 20260506105039 | 26 | 153 | 4.8 | 14.5 | 0.00 | 0.00 | 0.00 | 45 | 1013.7 |
| 20260506104919 | 26 | 156 | 6.4 | 12.9 | 0.00 | 0.00 | 0.00 | 45 | 1013.8 |
| 20260506104757 | 26 | 183 | 6.4 | 14.5 | 0.00 | 0.00 | 0.00 | 45 | 1013.8 |
| 20260506104734 | 26 | 134 | 6.4 | 14.5 | 0.00 | 0.00 | 0.00 | 45 | 1013.8 |
| 20260506104609 | 26 | 213 | 6.4 | 14.5 | 0.00 | 0.00 | 0.00 | 45 | 1013.8 |
| 20260506104418 | 26 | 195 | 6.4 | 14.5 | 0.00 | 0.00 | 0.00 | 45 | 1013.8 |
| 20260506104355 | 26 | 138 | 6.4 | 14.5 | 0.00 | 0.00 | 0.00 | 45 | 1013.8 |
| 20260506104302 | 26 | 126 | 6.4 | 14.5 | 0.00 | 0.00 | 0.00 | 45 | 1013.8 |
| 20260506104139 | 26 | 138 | 4.8 | 14.5 | 0.00 | 0.00 | 0.00 | 45 | 1013.8 |
| 20260506103727 | 26 | 155 | 6.4 | 14.5 | 0.00 | 0.00 | 0.00 | 46 | 1013.8 |
| 20260506103549 | 26 | 299 | 6.4 | 14.5 | 0.00 | 0.00 | 0.00 | 46 | 1013.8 |
| 20260506103417 | 26 | 180 | 6.4 | 14.5 | 0.00 | 0.00 | 0.00 | 46 | 1013.8 |
| 20260506103042 | 26 | 157 | 6.4 | 14.5 | 0.00 | 0.00 | 0.00 | 45 | 1013.8 |
| 20260506102854 | 26 | 148 | 6.4 | 14.5 | 0.00 | 0.00 | 0.00 | 45 | 1013.8 |
| 20260506102502 | 26 | 152 | 6.4 | 14.5 | 0.00 | 0.00 | 0.00 | 45 | 1013.8 |
| 20260506102326 | 26 | 188 | 6.4 | 14.5 | 0.00 | 0.00 | 0.00 | 45 | 1013.9 |
| 20260506102141 | 26 | 191 | 8.0 | 14.5 | 0.00 | 0.00 | 0.00 | 44 | 1013.9 |
| 20260506102122 | 26 | 148 | 8.0 | 14.5 | 0.00 | 0.00 | 0.00 | 44 | 1013.9 |
| 20260506102003 | 26 | 242 | 6.4 | 14.5 | 0.00 | 0.00 | 0.00 | 44 | 1014.0 |
| 20260506101812 | 26 | 146 | 6.4 | 14.5 | 0.00 | 0.00 | 0.00 | 44 | 1014.0 |
| 20260506101650 | 26 | 132 | 4.8 | 12.9 | 0.00 | 0.00 | 0.00 | 45 | 1013.9 |
| 20260506101605 | 26 | 92 | 4.8 | 12.9 | 0.00 | 0.00 | 0.00 | 45 | 1014.0 |
| 20260506101437 | 26 | 145 | 4.8 | 12.9 | 0.00 | 0.00 | 0.00 | 45 | 1014.0 |
| 20260506101255 | 26 | 153 | 4.8 | 12.9 | 0.00 | 0.00 | 0.00 | 45 | 1013.9 |
| 20260506101221 | 26 | 153 | 4.8 | 12.9 | 0.00 | 0.00 | 0.00 | 44 | 1013.9 |
| 20260506101107 | 26 | 174 | 4.8 | 12.9 | 0.00 | 0.00 | 0.00 | 43 | 1014.0 |
| 20260506100938 | 26 | 232 | 4.8 | 12.9 | 0.00 | 0.00 | 0.00 | 41 | 1014.0 |
| 20260506100834 | 26 | 219 | 4.8 | 12.9 | 0.00 | 0.00 | 0.00 | 41 | 1014.0 |
| 20260506100802 | 26 | 178 | 4.8 | 12.9 | 0.00 | 0.00 | 0.00 | 41 | 1014.1 |
| 20260506100629 | 26 | 167 | 4.8 | 11.3 | 0.00 | 0.00 | 0.00 | 41 | 1014.1 |
| 20260506100510 | 26 | 231 | 4.8 | 11.3 | 0.00 | 0.00 | 0.00 | 41 | 1014.1 |
| 20260506100459 | 26 | 272 | 4.8 | 11.3 | 0.00 | 0.00 | 0.00 | 41 | 1014.1 |
| 20260506100321 | 26 | 237 | 6.4 | 14.5 | 0.00 | 0.00 | 0.00 | 42 | 1014.1 |
| 20260506100206 | 26 | 126 | 4.8 | 14.5 | 0.00 | 0.00 | 0.00 | 42 | 1014.1 |
| 20260506100119 | 26 | 146 | 4.8 | 14.5 | 0.00 | 0.00 | 0.00 | 42 | 1014.2 |
| 20260506100038 | 26 | 146 | 4.8 | 14.5 | 0.00 | 0.00 | 0.00 | 42 | 1014.2 |
| 20260506095917 | 26 | 146 | 4.8 | 14.5 | 0.00 | 0.00 | 0.00 | 42 | 1014.2 |
| 20260506095807 | 26 | 148 | 4.8 | 14.5 | 0.00 | 0.00 | 0.00 | 42 | 1014.2 |
| 20260506095756 | 26 | 150 | 4.8 | 14.5 | 0.00 | 0.00 | 0.00 | 42 | 1014.2 |
| 20260506095613 | 26 | 97 | 4.8 | 12.9 | 0.00 | 0.00 | 0.00 | 43 | 1014.2 |
| 20260506095503 | 26 | 124 | 4.8 | 12.9 | 0.00 | 0.00 | 0.00 | 43 | 1014.2 |
| 20260506095054 | 26 | 138 | 4.8 | 12.9 | 0.00 | 0.00 | 0.00 | 43 | 1014.2 |
| 20260506094926 | 26 | 134 | 4.8 | 12.9 | 0.00 | 0.00 | 0.00 | 43 | 1014.2 |
| 20260506094756 | 26 | 134 | 4.8 | 11.3 | 0.00 | 0.00 | 0.00 | 43 | 1014.2 |
| 20260506094746 | 26 | 115 | 4.8 | 11.3 | 0.00 | 0.00 | 0.00 | 43 | 1014.2 |
| 20260506094606 | 26 | 103 | 4.8 | 12.9 | 0.00 | 0.00 | 0.00 | 44 | 1014.2 |
| 20260506094451 | 26 | 103 | 4.8 | 12.9 | 0.00 | 0.00 | 0.00 | 44 | 1014.2 |
| 20260506094404 | 26 | 252 | 4.8 | 12.9 | 0.00 | 0.00 | 0.00 | 44 | 1014.1 |
| 20260506094311 | 25 | 182 | 6.4 | 12.9 | 0.00 | 0.00 | 0.00 | 46 | 1014.1 |
| 20260506094107 | 25 | 148 | 6.4 | 16.1 | 0.00 | 0.00 | 0.00 | 47 | 1014.1 |
| 20260506093941 | 25 | 120 | 6.4 | 16.1 | 0.00 | 0.00 | 0.00 | 47 | 1014.1 |
| 20260506093907 | 25 | 138 | 6.4 | 16.1 | 0.00 | 0.00 | 0.00 | 47 | 1014.1 |
| 20260506093719 | 25 | 153 | 6.4 | 16.1 | 0.00 | 0.00 | 0.00 | 47 | 1014.1 |
| 20260506093520 | 25 | 179 | 6.4 | 16.1 | 0.00 | 0.00 | 0.00 | 48 | 1014.1 |
| 20260506093448 | 25 | 190 | 6.4 | 16.1 | 0.00 | 0.00 | 0.00 | 48 | 1014.1 |
| 20260506093410 | 25 | 99 | 6.4 | 16.1 | 0.00 | 0.00 | 0.00 | 47 | 1014.1 |
| 20260506093235 | 25 | 146 | 6.4 | 14.5 | 0.00 | 0.00 | 0.00 | 47 | 1014.2 |
| 20260506093103 | 25 | 149 | 6.4 | 14.5 | 0.00 | 0.00 | 0.00 | 48 | 1014.2 |
| 20260506092942 | 25 | 109 | 4.8 | 12.9 | 0.00 | 0.00 | 0.00 | 48 | 1014.2 |
| 20260506092756 | 25 | 203 | 4.8 | 14.5 | 0.00 | 0.00 | 0.00 | 49 | 1014.2 |
| 20260506092426 | 25 | 183 | 4.8 | 14.5 | 0.00 | 0.00 | 0.00 | 48 | 1014.2 |
| 20260506092214 | 25 | 215 | 4.8 | 14.5 | 0.00 | 0.00 | 0.00 | 49 | 1014.1 |
| 20260506091842 | 25 | 148 | 6.4 | 14.5 | 0.00 | 0.00 | 0.00 | 49 | 1014.1 |
| 20260506091714 | 25 | 128 | 4.8 | 14.5 | 0.00 | 0.00 | 0.00 | 49 | 1014.1 |
| 20260506091535 | 25 | 142 | 4.8 | 12.9 | 0.00 | 0.00 | 0.00 | 50 | 1014.1 |
| 20260506091456 | 25 | 108 | 4.8 | 11.3 | 0.00 | 0.00 | 0.00 | 51 | 1014.1 |
| 20260506091406 | 25 | 131 | 4.8 | 11.3 | 0.00 | 0.00 | 0.00 | 51 | 1014.1 |
| 20260506091153 | 25 | 218 | 4.8 | 11.3 | 0.00 | 0.00 | 0.00 | 51 | 1014.1 |
| 20260506091028 | 25 | 253 | 3.2 | 11.3 | 0.00 | 0.00 | 0.00 | 51 | 1014.1 |
| 20260506090957 | 25 | 235 | 3.2 | 11.3 | 0.00 | 0.00 | 0.00 | 51 | 1014.1 |
| 20260506090811 | 25 | 123 | 4.8 | 11.3 | 0.00 | 0.00 | 0.00 | 51 | 1014.1 |
| 20260506090556 | 25 | 157 | 4.8 | 11.3 | 0.00 | 0.00 | 0.00 | 52 | 1014.1 |
| 20260506090201 | 25 | 188 | 4.8 | 14.5 | 0.00 | 0.00 | 0.00 | 53 | 1014.1 |
| 20260506090012 | 25 | 246 | 6.4 | 14.5 | 0.00 | 0.00 | 0.00 | 53 | 1014.1 |
| 20260506085836 | 25 | 247 | 4.8 | 14.5 | 0.00 | 0.00 | 0.00 | 53 | 1014.1 |
| 20260506085815 | 25 | 205 | 4.8 | 14.5 | 0.00 | 0.00 | 0.00 | 53 | 1014.1 |
| 20260506085544 | 25 | 238 | 4.8 | 14.5 | 0.00 | 0.00 | 0.00 | 52 | 1014.2 |
| 20260506085400 | 25 | 219 | 4.8 | 14.5 | 0.00 | 0.00 | 0.00 | 52 | 1014.1 |
| 20260506085321 | 25 | 222 | 3.2 | 14.5 | 0.00 | 0.00 | 0.00 | 52 | 1014.1 |
| 20260506085152 | 24 | 204 | 3.2 | 11.3 | 0.00 | 0.00 | 0.00 | 52 | 1014.1 |
| 20260506084941 | 24 | 158 | 3.2 | 8.0 | 0.00 | 0.00 | 0.00 | 52 | 1014.1 |
| 20260506084556 | 24 | 126 | 3.2 | 8.0 | 0.00 | 0.00 | 0.00 | 52 | 1014.2 |
| 20260506084348 | 23 | 103 | 3.2 | 8.0 | 0.00 | 0.00 | 0.00 | 53 | 1014.1 |
| 20260506084230 | 23 | 178 | 3.2 | 8.0 | 0.00 | 0.00 | 0.00 | 53 | 1014.1 |
| 20260506084213 | 23 | 172 | 3.2 | 8.0 | 0.00 | 0.00 | 0.00 | 53 | 1014.1 |
| 20260506084107 | 23 | 173 | 3.2 | 9.7 | 0.00 | 0.00 | 0.00 | 53 | 1014.1 |
| 20260506083941 | 23 | 148 | 3.2 | 9.7 | 0.00 | 0.00 | 0.00 | 52 | 1014.1 |
| 20260506083809 | 23 | 149 | 3.2 | 9.7 | 0.00 | 0.00 | 0.00 | 52 | 1014.1 |
| 20260506083631 | 23 | 149 | 3.2 | 9.7 | 0.00 | 0.00 | 0.00 | 53 | 1014.1 |
| 20260506083306 | 23 | 222 | 1.6 | 9.7 | 0.00 | 0.00 | 0.00 | 53 | 1014.1 |
| 20260506082949 | 23 | 157 | 1.6 | 9.7 | 0.00 | 0.00 | 0.00 | 54 | 1014.1 |
| 20260506082930 | 23 | 236 | 1.6 | 9.7 | 0.00 | 0.00 | 0.00 | 54 | 1014.1 |
| 20260506082759 | 23 | 309 | 1.6 | 6.4 | 0.00 | 0.00 | 0.00 | 54 | 1014.1 |
| 20260506082551 | 22 | 327 | 1.6 | 6.4 | 0.00 | 0.00 | 0.00 | 54 | 1014.0 |
| 20260506082406 | 22 | 95 | 1.6 | 6.4 | 0.00 | 0.00 | 0.00 | 54 | 1014.0 |
| 20260506082343 | 22 | 95 | 1.6 | 6.4 | 0.00 | 0.00 | 0.00 | 54 | 1014.1 |
| 20260506082127 | 22 | 98 | 3.2 | 8.0 | 0.00 | 0.00 | 0.00 | 53 | 1014.0 |
| 20260506082019 | 22 | 317 | 3.2 | 8.0 | 0.00 | 0.00 | 0.00 | 53 | 1014.0 |
| 20260506081957 | 22 | 346 | 3.2 | 8.0 | 0.00 | 0.00 | 0.00 | 54 | 1014.1 |
| 20260506081828 | 22 | 298 | 3.2 | 8.0 | 0.00 | 0.00 | 0.00 | 55 | 1014.1 |
| 20260506081622 | 22 | 153 | 4.8 | 8.0 | 0.00 | 0.00 | 0.00 | 56 | 1014.1 |
| 20260506081521 | 22 | 203 | 4.8 | 9.7 | 0.00 | 0.00 | 0.00 | 57 | 1014.0 |
| 20260506081421 | 22 | 160 | 4.8 | 9.7 | 0.00 | 0.00 | 0.00 | 57 | 1014.0 |
| 20260506081135 | 22 | 193 | 3.2 | 9.7 | 0.00 | 0.00 | 0.00 | 59 | 1014.1 |
| 20260506080840 | 22 | 265 | 3.2 | 9.7 | 0.00 | 0.00 | 0.00 | 59 | 1014.0 |
| 20260506080726 | 22 | 227 | 3.2 | 9.7 | 0.00 | 0.00 | 0.00 | 59 | 1014.0 |
| 20260506080527 | 22 | 283 | 3.2 | 9.7 | 0.00 | 0.00 | 0.00 | 60 | 1014.0 |
| 20260506080431 | 22 | 274 | 3.2 | 9.7 | 0.00 | 0.00 | 0.00 | 60 | 1014.1 |
| 20260506080358 | 22 | 284 | 3.2 | 6.4 | 0.00 | 0.00 | 0.00 | 61 | 1014.1 |
| 20260506080134 | 21 | 277 | 3.2 | 6.4 | 0.00 | 0.00 | 0.00 | 61 | 1014.0 |
| 20260506073256 | 20 | 129 | 1.6 | 4.8 | 0.00 | 0.00 | 0.00 | 67 | 1014.1 |
| 20260506073125 | 20 | 301 | 1.6 | 4.8 | 0.00 | 0.00 | 0.00 | 68 | 1014.1 |
| 20260506072950 | 20 | 319 | 1.6 | 4.8 | 0.00 | 0.00 | 0.00 | 68 | 1014.1 |
| 20260506072937 | 20 | 318 | 1.6 | 4.8 | 0.00 | 0.00 | 0.00 | 69 | 1014.1 |
| 20260506072754 | 20 | 238 | 1.6 | 4.8 | 0.00 | 0.00 | 0.00 | 69 | 1014.1 |
| 20260506072610 | 19 | 279 | 1.6 | 4.8 | 0.00 | 0.00 | 0.00 | 69 | 1014.1 |
| 20260506072439 | 19 | 295 | 1.6 | 4.8 | 0.00 | 0.00 | 0.00 | 70 | 1014.1 |
| 20260506072343 | 19 | 347 | 1.6 | 4.8 | 0.00 | 0.00 | 0.00 | 70 | 1014.1 |
| 20260506072055 | 19 | 233 | 1.6 | 4.8 | 0.00 | 0.00 | 0.00 | 70 | 1014.1 |
| 20260506071744 | 18 | 233 | 1.6 | 6.4 | 0.00 | 0.00 | 0.00 | 71 | 1014.1 |
| 20260506071436 | 18 | 259 | 3.2 | 6.4 | 0.00 | 0.00 | 0.00 | 71 | 1014.1 |
| 20260506071206 | 18 | 257 | 3.2 | 6.4 | 0.00 | 0.00 | 0.00 | 71 | 1014.1 |
| 20260506070738 | 18 | 294 | 3.2 | 6.4 | 0.00 | 0.00 | 0.00 | 72 | 1014.1 |
| 20260506070504 | 18 | 294 | 3.2 | 6.4 | 0.00 | 0.00 | 0.00 | 72 | 1014.1 |
| 20260506070256 | 18 | 310 | 3.2 | 6.4 | 0.00 | 0.00 | 0.00 | 72 | 1014.2 |
| 20260506070234 | 18 | 304 | 3.2 | 6.4 | 0.00 | 0.00 | 0.00 | 72 | 1014.2 |
| 20260506062220 | 16 | 326 | 1.6 | 6.4 | 0.00 | 0.00 | 0.00 | 82 | 1014.5 |
| 20260506062017 | 16 | 302 | 1.6 | 6.4 | 0.00 | 0.00 | 0.00 | 82 | 1014.5 |
| 20260506061739 | 16 | 323 | 1.6 | 6.4 | 0.00 | 0.00 | 0.00 | 83 | 1014.5 |
| 20260506061713 | 16 | 310 | 1.6 | 6.4 | 0.00 | 0.00 | 0.00 | 83 | 1014.5 |
| 20260506061600 | 13 | 331 | 4.8 | 9.7 | 0.00 | 0.00 | 0.00 | 85 | 1013.4 |
| 20260506061537 | 16 | 306 | 1.6 | 4.8 | 0.00 | 0.00 | 0.00 | 84 | 1014.5 |
| 20260506061356 | 16 | 233 | 3.2 | 4.8 | 0.00 | 0.00 | 0.00 | 84 | 1014.5 |
| 20260506061216 | 15 | 221 | 1.6 | 4.8 | 0.00 | 0.00 | 0.00 | 84 | 1014.5 |
| 20260506061150 | 15 | 237 | 1.6 | 4.8 | 0.00 | 0.00 | 0.00 | 84 | 1014.5 |
| 20260506061003 | 15 | 268 | 1.6 | 4.8 | 0.00 | 0.00 | 0.00 | 84 | 1014.5 |
| 20260506060821 | 15 | 274 | 1.6 | 4.8 | 0.00 | 0.00 | 0.00 | 85 | 1014.5 |
| 20260506060806 | 15 | 273 | 1.6 | 4.8 | 0.00 | 0.00 | 0.00 | 85 | 1014.5 |
| 20260506060645 | 15 | 273 | 1.6 | 4.8 | 0.00 | 0.00 | 0.00 | 85 | 1014.5 |
| 20260506060514 | 15 | 305 | 0.0 | 4.8 | 0.00 | 0.00 | 0.00 | 85 | 1014.4 |
| 20260506060125 | 15 | 305 | 0.0 | 3.2 | 0.00 | 0.00 | 0.00 | 85 | 1014.4 |
| 20260506051313 | 12 | 277 | 3.2 | 4.8 | 0.00 | 0.00 | 0.00 | 88 | 1014.5 |
| 20260506051249 | 12 | 290 | 1.6 | 4.8 | 0.00 | 0.00 | 0.00 | 88 | 1014.5 |
| 20260506051138 | 12 | 284 | 1.6 | 4.8 | 0.00 | 0.00 | 0.00 | 88 | 1014.4 |
| 20260506051003 | 12 | 284 | 1.6 | 4.8 | 0.00 | 0.00 | 0.00 | 89 | 1014.4 |
| 20260506050837 | 12 | 295 | 1.6 | 4.8 | 0.00 | 0.00 | 0.00 | 89 | 1014.4 |
| 20260506050807 | 12 | 299 | 1.6 | 4.8 | 0.00 | 0.00 | 0.00 | 89 | 1014.4 |
| 20260506050637 | 12 | 327 | 1.6 | 4.8 | 0.00 | 0.00 | 0.00 | 89 | 1014.3 |
| 20260506050446 | 12 | 304 | 1.6 | 4.8 | 0.00 | 0.00 | 0.00 | 89 | 1014.4 |
| 20260506044950 | 11 | 323 | 3.2 | 4.8 | 0.00 | 0.00 | 0.00 | 89 | 1014.3 |
| 20260506044800 | 11 | 319 | 3.2 | 4.8 | 0.00 | 0.00 | 0.00 | 89 | 1014.3 |
| 20260506044713 | 11 | 323 | 3.2 | 6.4 | 0.00 | 0.00 | 0.00 | 89 | 1014.3 |
| 20260506044628 | 11 | 324 | 3.2 | 6.4 | 0.00 | 0.00 | 0.00 | 89 | 1014.2 |
| 20260506044515 | 11 | 327 | 3.2 | 6.4 | 0.00 | 0.00 | 0.00 | 89 | 1014.3 |
| 20260506044351 | 11 | 320 | 3.2 | 6.4 | 0.00 | 0.00 | 0.00 | 89 | 1014.2 |
| 20260506044342 | 11 | 298 | 3.2 | 6.4 | 0.00 | 0.00 | 0.00 | 89 | 1014.2 |
| 20260506044212 | 11 | 345 | 3.2 | 6.4 | 0.00 | 0.00 | 0.00 | 89 | 1014.2 |
| 20260506043926 | 11 | 302 | 3.2 | 6.4 | 0.00 | 0.00 | 0.00 | 89 | 1014.2 |
| 20260506043800 | 11 | 313 | 3.2 | 4.8 | 0.00 | 0.00 | 0.00 | 89 | 1014.2 |
| 20260506043720 | 11 | 326 | 3.2 | 6.4 | 0.00 | 0.00 | 0.00 | 89 | 1014.2 |
| 20260506043505 | 11 | 333 | 3.2 | 6.4 | 0.00 | 0.00 | 0.00 | 88 | 1014.1 |
| 20260506043309 | 11 | 306 | 3.2 | 9.7 | 0.00 | 0.00 | 0.00 | 88 | 1014.1 |
| 20260506043130 | 11 | 288 | 3.2 | 9.7 | 0.00 | 0.00 | 0.00 | 88 | 1014.1 |
| 20260506042826 | 11 | 311 | 3.2 | 9.7 | 0.00 | 0.00 | 0.00 | 88 | 1014.1 |
| 20260506042747 | 11 | 311 | 3.2 | 9.7 | 0.00 | 0.00 | 0.00 | 88 | 1014.1 |
| 20260506042658 | 11 | 286 | 3.2 | 9.7 | 0.00 | 0.00 | 0.00 | 88 | 1014.1 |
| 20260506042539 | 11 | 314 | 3.2 | 9.7 | 0.00 | 0.00 | 0.00 | 88 | 1014.1 |
| 20260506042339 | 11 | 317 | 3.2 | 6.4 | 0.00 | 0.00 | 0.00 | 88 | 1014.1 |
| 20260506042225 | 11 | 287 | 3.2 | 6.4 | 0.00 | 0.00 | 0.00 | 88 | 1014.1 |
| 20260506042050 | 11 | 262 | 3.2 | 6.4 | 0.00 | 0.00 | 0.00 | 88 | 1014.1 |
| 20260506042012 | 11 | 286 | 3.2 | 6.4 | 0.00 | 0.00 | 0.00 | 88 | 1014.1 |
| 20260506041858 | 11 | 299 | 3.2 | 4.8 | 0.00 | 0.00 | 0.00 | 88 | 1014.0 |
| 20260506041734 | 11 | 271 | 3.2 | 4.8 | 0.00 | 0.00 | 0.00 | 88 | 1014.0 |
| 20260506041554 | 11 | 315 | 3.2 | 4.8 | 0.00 | 0.00 | 0.00 | 88 | 1014.1 |
| 20260506041443 | 11 | 306 | 3.2 | 4.8 | 0.00 | 0.00 | 0.00 | 88 | 1013.9 |
| 20260506041305 | 11 | 314 | 3.2 | 6.4 | 0.00 | 0.00 | 0.00 | 87 | 1013.9 |
| 20260506041214 | 11 | 323 | 3.2 | 6.4 | 0.00 | 0.00 | 0.00 | 87 | 1013.9 |
| 20260506041125 | 11 | 322 | 3.2 | 6.4 | 0.00 | 0.00 | 0.00 | 87 | 1014.0 |
| 20260506041000 | 11 | 317 | 3.2 | 6.4 | 0.00 | 0.00 | 0.00 | 87 | 1013.9 |
| 20260506040838 | 11 | 323 | 3.2 | 6.4 | 0.00 | 0.00 | 0.00 | 87 | 1014.0 |
| 20260506040718 | 11 | 307 | 3.2 | 6.4 | 0.00 | 0.00 | 0.00 | 87 | 1013.9 |
| 20260506040550 | 11 | 307 | 3.2 | 6.4 | 0.00 | 0.00 | 0.00 | 88 | 1013.9 |
| 20260506040523 | 11 | 317 | 3.2 | 6.4 | 0.00 | 0.00 | 0.00 | 88 | 1013.9 |
| 20260506040433 | 11 | 277 | 1.6 | 6.4 | 0.00 | 0.00 | 0.00 | 88 | 1013.9 |
| 20260506040250 | 11 | 298 | 1.6 | 4.8 | 0.00 | 0.00 | 0.00 | 87 | 1013.9 |
| 20260506040154 | 11 | 288 | 1.6 | 4.8 | 0.00 | 0.00 | 0.00 | 87 | 1013.9 |
| 20260506040127 | 11 | 286 | 1.6 | 4.8 | 0.00 | 0.00 | 0.00 | 87 | 1013.9 |
| 20260506040002 | 11 | 277 | 1.6 | 4.8 | 0.00 | 0.00 | 0.00 | 87 | 1013.8 |
| 20260506035830 | 11 | 315 | 0.0 | 4.8 | 0.00 | 0.00 | 0.00 | 87 | 1013.8 |
| 20260506035804 | 11 | 316 | 0.0 | 4.8 | 0.00 | 0.00 | 0.00 | 87 | 1013.7 |
| 20260506035629 | 11 | 315 | 0.0 | 3.2 | 0.00 | 0.00 | 0.00 | 87 | 1013.7 |
| 20260506035454 | 11 | 300 | 0.0 | 3.2 | 0.00 | 0.00 | 0.00 | 87 | 1013.7 |
| 20260506035337 | 11 | 300 | 1.6 | 3.2 | 0.00 | 0.00 | 0.00 | 87 | 1013.6 |
| 20260506035317 | 11 | 300 | 1.6 | 3.2 | 0.00 | 0.00 | 0.00 | 87 | 1013.6 |
| 20260506035047 | 11 | 300 | 1.6 | 3.2 | 0.00 | 0.00 | 0.00 | 87 | 1013.7 |
| 20260506034901 | 11 | 292 | 1.6 | 3.2 | 0.00 | 0.00 | 0.00 | 87 | 1013.7 |
| 20260506034817 | 11 | 293 | 1.6 | 3.2 | 0.00 | 0.00 | 0.00 | 87 | 1013.7 |
| 20260506034706 | 11 | 304 | 1.6 | 4.8 | 0.00 | 0.00 | 0.00 | 87 | 1013.7 |
| 20260506034536 | 11 | 314 | 1.6 | 6.4 | 0.00 | 0.00 | 0.00 | 87 | 1013.7 |
| 20260506034150 | 11 | 314 | 1.6 | 6.4 | 0.00 | 0.00 | 0.00 | 87 | 1013.8 |
| 20260506034032 | 11 | 293 | 1.6 | 6.4 | 0.00 | 0.00 | 0.00 | 87 | 1013.7 |
| 20260506033925 | 11 | 316 | 1.6 | 6.4 | 0.00 | 0.00 | 0.00 | 87 | 1013.7 |
| 20260506033857 | 11 | 315 | 1.6 | 6.4 | 0.00 | 0.00 | 0.00 | 87 | 1013.7 |
| 20260506033745 | 11 | 281 | 1.6 | 6.4 | 0.00 | 0.00 | 0.00 | 87 | 1013.7 |
| 20260506033559 | 11 | 286 | 1.6 | 4.8 | 0.00 | 0.00 | 0.00 | 87 | 1013.7 |
| 20260506033456 | 11 | 305 | 1.6 | 3.2 | 0.00 | 0.00 | 0.00 | 87 | 1013.7 |
| 20260506033435 | 11 | 305 | 0.0 | 3.2 | 0.00 | 0.00 | 0.00 | 87 | 1013.7 |
| 20260506033300 | 11 | 305 | 0.0 | 3.2 | 0.00 | 0.00 | 0.00 | 87 | 1013.6 |
| 20260506033044 | 11 | 305 | 0.0 | 0.0 | 0.00 | 0.00 | 0.00 | 87 | 1013.6 |
| 20260506032917 | 11 | 305 | 0.0 | 0.0 | 0.00 | 0.00 | 0.00 | 87 | 1013.6 |
| 20260506032611 | 11 | 305 | 0.0 | 0.0 | 0.00 | 0.00 | 0.00 | 87 | 1013.6 |
| 20260506032458 | 11 | 305 | 0.0 | 0.0 | 0.00 | 0.00 | 0.00 | 87 | 1013.6 |
| 20260506032340 | 11 | 304 | 0.0 | 1.6 | 0.00 | 0.00 | 0.00 | 87 | 1013.6 |
| 20260506032143 | 11 | 304 | 0.0 | 3.2 | 0.00 | 0.00 | 0.00 | 87 | 1013.6 |
| 20260506032015 | 11 | 304 | 0.0 | 3.2 | 0.00 | 0.00 | 0.00 | 87 | 1013.6 |
| 20260506032004 | 11 | 304 | 0.0 | 3.2 | 0.00 | 0.00 | 0.00 | 87 | 1013.6 |
| 20260506031737 | 11 | 305 | 1.6 | 3.2 | 0.00 | 0.00 | 0.00 | 87 | 1013.6 |
| 20260506031439 | 11 | 305 | 1.6 | 3.2 | 0.00 | 0.00 | 0.00 | 87 | 1013.6 |
| 20260506031312 | 11 | 305 | 1.6 | 3.2 | 0.00 | 0.00 | 0.00 | 87 | 1013.6 |
| 20260506031140 | 11 | 304 | 1.6 | 3.2 | 0.00 | 0.00 | 0.00 | 87 | 1013.5 |
| 20260506030946 | 11 | 305 | 1.6 | 3.2 | 0.00 | 0.00 | 0.00 | 87 | 1013.5 |
| 20260506030736 | 11 | 305 | 1.6 | 4.8 | 0.00 | 0.00 | 0.00 | 87 | 1013.5 |
| 20260506030544 | 11 | 305 | 1.6 | 4.8 | 0.00 | 0.00 | 0.00 | 87 | 1013.4 |
| 20260506030316 | 11 | 307 | 1.6 | 4.8 | 0.00 | 0.00 | 0.00 | 87 | 1013.5 |
| 20260506030211 | 11 | 307 | 1.6 | 4.8 | 0.00 | 0.00 | 0.00 | 87 | 1013.5 |
| 20260506030052 | 11 | 318 | 1.6 | 4.8 | 0.00 | 0.00 | 0.00 | 87 | 1013.5 |
| 20260506025823 | 11 | 299 | 3.2 | 4.8 | 0.00 | 0.00 | 0.00 | 87 | 1013.5 |
| 20260506025608 | 11 | 277 | 3.2 | 4.8 | 0.00 | 0.00 | 0.00 | 87 | 1013.5 |
| 20260506025344 | 11 | 307 | 1.6 | 4.8 | 0.00 | 0.00 | 0.00 | 87 | 1013.4 |
| 20260506025155 | 11 | 310 | 1.6 | 4.8 | 0.00 | 0.00 | 0.00 | 87 | 1013.4 |
| 20260506025039 | 11 | 310 | 1.6 | 4.8 | 0.00 | 0.00 | 0.00 | 87 | 1013.4 |
| 20260506024913 | 11 | 310 | 1.6 | 4.8 | 0.00 | 0.00 | 0.00 | 87 | 1013.5 |
| 20260506024558 | 11 | 310 | 1.6 | 4.8 | 0.00 | 0.00 | 0.00 | 87 | 1013.5 |
| 20260506024240 | 11 | 291 | 1.6 | 3.2 | 0.00 | 0.00 | 0.00 | 87 | 1013.5 |
| 20260506024010 | 11 | 291 | 1.6 | 3.2 | 0.00 | 0.00 | 0.00 | 87 | 1013.6 |
| 20260506023723 | 11 | 291 | 1.6 | 3.2 | 0.00 | 0.00 | 0.00 | 86 | 1013.6 |
| 20260506023619 | 11 | 291 | 1.6 | 3.2 | 0.00 | 0.00 | 0.00 | 86 | 1013.6 |
| 20260506023503 | 11 | 309 | 1.6 | 3.2 | 0.00 | 0.00 | 0.00 | 86 | 1013.5 |
| 20260506023234 | 11 | 309 | 1.6 | 3.2 | 0.00 | 0.00 | 0.00 | 86 | 1013.6 |
| 20260506023052 | 11 | 309 | 1.6 | 3.2 | 0.00 | 0.00 | 0.00 | 86 | 1013.6 |
| 20260506022826 | 11 | 309 | 1.6 | 4.8 | 0.00 | 0.00 | 0.00 | 86 | 1013.6 |
| 20260506022531 | 12 | 333 | 1.6 | 6.4 | 0.00 | 0.00 | 0.00 | 86 | 1013.6 |
| 20260506022106 | 12 | 333 | 3.2 | 6.4 | 0.00 | 0.00 | 0.00 | 86 | 1013.7 |
| 20260506021836 | 12 | 334 | 3.2 | 6.4 | 0.00 | 0.00 | 0.00 | 86 | 1013.6 |
| 20260506021637 | 12 | 331 | 3.2 | 6.4 | 0.00 | 0.00 | 0.00 | 86 | 1013.6 |
| 20260506021604 | 12 | 319 | 3.2 | 6.4 | 0.00 | 0.00 | 0.00 | 86 | 1013.7 |
| 20260506021349 | 12 | 302 | 3.2 | 6.4 | 0.00 | 0.00 | 0.00 | 86 | 1013.6 |
| 20260506021206 | 12 | 313 | 3.2 | 6.4 | 0.00 | 0.00 | 0.00 | 86 | 1013.7 |
| 20260506021126 | 12 | 325 | 3.2 | 6.4 | 0.00 | 0.00 | 0.00 | 86 | 1013.7 |
| 20260506020915 | 12 | 327 | 3.2 | 6.4 | 0.00 | 0.00 | 0.00 | 86 | 1013.7 |
| 20260506020713 | 12 | 292 | 4.8 | 6.4 | 0.00 | 0.00 | 0.00 | 86 | 1013.6 |
| 20260506020612 | 12 | 294 | 4.8 | 6.4 | 0.00 | 0.00 | 0.00 | 86 | 1013.6 |
| 20260506020514 | 12 | 317 | 4.8 | 6.4 | 0.00 | 0.00 | 0.00 | 86 | 1013.6 |
| 20260506020323 | 12 | 301 | 4.8 | 6.4 | 0.00 | 0.00 | 0.00 | 86 | 1013.6 |
| 20260506020123 | 12 | 302 | 4.8 | 6.4 | 0.00 | 0.00 | 0.00 | 86 | 1013.7 |
| 20260506020053 | 12 | 325 | 4.8 | 6.4 | 0.00 | 0.00 | 0.00 | 85 | 1013.7 |
| 20260506015843 | 12 | 313 | 4.8 | 6.4 | 0.00 | 0.00 | 0.00 | 85 | 1013.6 |
| 20260506015651 | 12 | 296 | 4.8 | 6.4 | 0.00 | 0.00 | 0.00 | 85 | 1013.6 |
| 20260506015546 | 12 | 323 | 4.8 | 6.4 | 0.00 | 0.00 | 0.00 | 85 | 1013.6 |
| 20260506015454 | 12 | 305 | 4.8 | 6.4 | 0.00 | 0.00 | 0.00 | 85 | 1013.6 |
| 20260506015327 | 12 | 302 | 4.8 | 6.4 | 0.00 | 0.00 | 0.00 | 85 | 1013.6 |
| 20260506015119 | 12 | 290 | 3.2 | 6.4 | 0.00 | 0.00 | 0.00 | 85 | 1013.6 |
| 20260506015111 | 12 | 306 | 3.2 | 6.4 | 0.00 | 0.00 | 0.00 | 85 | 1013.6 |
| 20260506014902 | 12 | 288 | 3.2 | 6.4 | 0.00 | 0.00 | 0.00 | 85 | 1013.5 |
| 20260506014715 | 12 | 305 | 3.2 | 6.4 | 0.00 | 0.00 | 0.00 | 85 | 1013.5 |
| 20260506014555 | 12 | 322 | 3.2 | 6.4 | 0.00 | 0.00 | 0.00 | 85 | 1013.5 |
| 20260506014510 | 12 | 299 | 3.2 | 6.4 | 0.00 | 0.00 | 0.00 | 85 | 1013.5 |
| 20260506014340 | 12 | 313 | 3.2 | 6.4 | 0.00 | 0.00 | 0.00 | 85 | 1013.4 |
| 20260506014201 | 12 | 311 | 4.8 | 6.4 | 0.00 | 0.00 | 0.00 | 85 | 1013.4 |
| 20260506014003 | 12 | 293 | 3.2 | 6.4 | 0.00 | 0.00 | 0.00 | 85 | 1013.5 |
| 20260506013823 | 12 | 308 | 3.2 | 6.4 | 0.00 | 0.00 | 0.00 | 85 | 1013.4 |
| 20260506013422 | 12 | 321 | 4.8 | 6.4 | 0.00 | 0.00 | 0.00 | 85 | 1013.4 |
| 20260506013214 | 12 | 306 | 4.8 | 6.4 | 0.00 | 0.00 | 0.00 | 85 | 1013.5 |
| 20260506013039 | 12 | 307 | 4.8 | 6.4 | 0.00 | 0.00 | 0.00 | 85 | 1013.4 |
| 20260506013027 | 12 | 311 | 4.8 | 6.4 | 0.00 | 0.00 | 0.00 | 85 | 1013.4 |
| 20260506012801 | 12 | 317 | 4.8 | 6.4 | 0.00 | 0.00 | 0.00 | 85 | 1013.4 |
| 20260506012623 | 12 | 304 | 4.8 | 6.4 | 0.00 | 0.00 | 0.00 | 85 | 1013.4 |
| 20260506012515 | 12 | 296 | 4.8 | 6.4 | 0.00 | 0.00 | 0.00 | 85 | 1013.4 |
| 20260506012401 | 12 | 346 | 3.2 | 6.4 | 0.00 | 0.00 | 0.00 | 85 | 1013.4 |
| 20260506012202 | 12 | 313 | 3.2 | 8.0 | 0.00 | 0.00 | 0.00 | 85 | 1013.4 |
| 20260506012021 | 12 | 306 | 3.2 | 8.0 | 0.00 | 0.00 | 0.00 | 85 | 1013.5 |
| 20260506011959 | 12 | 300 | 3.2 | 8.0 | 0.00 | 0.00 | 0.00 | 85 | 1013.5 |
| 20260506011756 | 13 | 317 | 3.2 | 8.0 | 0.00 | 0.00 | 0.00 | 85 | 1013.5 |
| 20260506011750 | 17 | 313 | 3.2 | 6.4 | 0.00 | 0.00 | 0.00 | 69 | 1013.4 |
| 20260506011617 | 13 | 293 | 4.8 | 8.0 | 0.00 | 0.00 | 0.00 | 85 | 1013.4 |
| 20260506011540 | 13 | 304 | 4.8 | 8.0 | 0.00 | 0.00 | 0.00 | 85 | 1013.4 |
| 20260506011419 | 13 | 320 | 4.8 | 8.0 | 0.00 | 0.00 | 0.00 | 85 | 1013.5 |
| 20260506011342 | 17 | 355 | 3.2 | 6.4 | 0.00 | 0.00 | 0.00 | 69 | 1013.4 |
| 20260506011310 | 17 | 355 | 3.2 | 6.4 | 0.00 | 0.00 | 0.00 | 68 | 1013.2 |
| 20260506011201 | 13 | 325 | 4.8 | 6.4 | 0.00 | 0.00 | 0.00 | 85 | 1013.5 |
| 20260506011041 | 13 | 309 | 4.8 | 6.4 | 0.00 | 0.00 | 0.00 | 85 | 1013.5 |
| 20260506010957 | 13 | 293 | 4.8 | 6.4 | 0.00 | 0.00 | 0.00 | 85 | 1013.5 |
| 20260506010758 | 13 | 310 | 4.8 | 6.4 | 0.00 | 0.00 | 0.00 | 85 | 1013.4 |
| 20260506010623 | 13 | 333 | 4.8 | 6.4 | 0.00 | 0.00 | 0.00 | 85 | 1013.4 |
| 20260506010548 | 13 | 322 | 4.8 | 6.4 | 0.00 | 0.00 | 0.00 | 85 | 1013.4 |
| 20260506010349 | 13 | 296 | 4.8 | 6.4 | 0.00 | 0.00 | 0.00 | 85 | 1013.5 |
| 20260506010256 | 17 | 326 | 4.8 | 12.9 | 0.00 | 0.00 | 0.00 | 70 | 1013.2 |
| 20260506010153 | 13 | 286 | 4.8 | 6.4 | 0.00 | 0.00 | 0.00 | 85 | 1013.4 |
| 20260506010013 | 13 | 306 | 4.8 | 6.4 | 0.00 | 0.00 | 0.00 | 85 | 1013.4 |
| 20260506005946 | 13 | 309 | 4.8 | 6.4 | 0.00 | 0.00 | 0.00 | 85 | 1013.4 |
| 20260506005751 | 13 | 323 | 3.2 | 6.4 | 0.00 | 0.00 | 0.00 | 85 | 1013.4 |
| 20260506005704 | 17 | 20 | 4.8 | 12.9 | 0.00 | 0.00 | 0.00 | 70 | 1013.1 |
| 20260506005550 | 13 | 310 | 3.2 | 6.4 | 0.00 | 0.00 | 0.00 | 85 | 1013.3 |
| 20260506005516 | 13 | 300 | 3.2 | 6.4 | 0.00 | 0.00 | 0.00 | 85 | 1013.3 |
| 20260506005333 | 13 | 309 | 3.2 | 6.4 | 0.00 | 0.00 | 0.00 | 85 | 1013.3 |
| 20260506005211 | 13 | 322 | 3.2 | 6.4 | 0.00 | 0.00 | 0.00 | 85 | 1013.3 |
| 20260506005042 | 13 | 318 | 3.2 | 6.4 | 0.00 | 0.00 | 0.00 | 85 | 1013.4 |
| 20260506005016 | 13 | 320 | 4.8 | 6.4 | 0.00 | 0.00 | 0.00 | 85 | 1013.4 |
| 20260506004745 | 13 | 299 | 4.8 | 8.0 | 0.00 | 0.00 | 0.00 | 85 | 1013.3 |
| 20260506004625 | 13 | 322 | 4.8 | 8.0 | 0.00 | 0.00 | 0.00 | 85 | 1013.4 |
| 20260506004600 | 13 | 313 | 4.8 | 8.0 | 0.00 | 0.00 | 0.00 | 85 | 1013.4 |
| 20260506004438 | 13 | 318 | 4.8 | 11.3 | 0.00 | 0.00 | 0.00 | 85 | 1013.4 |
| 20260506004320 | 13 | 321 | 6.4 | 11.3 | 0.00 | 0.00 | 0.00 | 85 | 1013.4 |
| 20260506004159 | 13 | 308 | 6.4 | 11.3 | 0.00 | 0.00 | 0.00 | 85 | 1013.4 |
| 20260506004135 | 13 | 325 | 6.4 | 11.3 | 0.00 | 0.00 | 0.00 | 85 | 1013.4 |
| 20260506003733 | 13 | 321 | 6.4 | 11.3 | 0.00 | 0.00 | 0.00 | 85 | 1013.4 |
| 20260506003550 | 13 | 321 | 6.4 | 11.3 | 0.00 | 0.00 | 0.00 | 85 | 1013.4 |
| 20260506003520 | 13 | 344 | 6.4 | 11.3 | 0.00 | 0.00 | 0.00 | 85 | 1013.4 |
| 20260506003403 | 13 | 344 | 6.4 | 9.7 | 0.00 | 0.00 | 0.00 | 85 | 1013.4 |
| 20260506003229 | 13 | 322 | 4.8 | 9.7 | 0.00 | 0.00 | 0.00 | 85 | 1013.4 |
| 20260506003126 | 13 | 317 | 4.8 | 9.7 | 0.00 | 0.00 | 0.00 | 85 | 1013.4 |
| 20260506003032 | 13 | 340 | 4.8 | 9.7 | 0.00 | 0.00 | 0.00 | 85 | 1013.4 |
| 20260506002913 | 13 | 303 | 4.8 | 9.7 | 0.00 | 0.00 | 0.00 | 85 | 1013.4 |
| 20260506002757 | 13 | 18 | 4.8 | 9.7 | 0.00 | 0.00 | 0.00 | 85 | 1013.4 |
| 20260506002333 | 13 | 346 | 4.8 | 9.7 | 0.00 | 0.00 | 0.00 | 84 | 1013.5 |
| 20260506002200 | 18 | 95 | 3.2 | 12.9 | 0.00 | 0.00 | 0.00 | 65 | 1012.4 |
| 20260506002124 | 13 | 331 | 4.8 | 9.7 | 0.00 | 0.00 | 0.00 | 84 | 1013.4 |
| 20260506002012 | 13 | 318 | 4.8 | 9.7 | 0.00 | 0.00 | 0.00 | 84 | 1013.4 |
| 20260506001929 | 13 | 289 | 4.8 | 9.7 | 0.00 | 0.00 | 0.00 | 84 | 1013.4 |
| 20260506001743 | 19 | 93 | 3.2 | 6.4 | 0.00 | 0.00 | 0.00 | 64 | 1012.2 |
| 20260506001719 | 13 | 337 | 6.4 | 9.7 | 0.00 | 0.00 | 0.00 | 84 | 1013.5 |
| 20260506001539 | 13 | 317 | 6.4 | 11.3 | 0.00 | 0.00 | 0.00 | 83 | 1013.4 |
| 20260506001518 | 13 | 341 | 6.4 | 11.3 | 0.00 | 0.00 | 0.00 | 83 | 1013.4 |
| 20260506001345 | 13 | 307 | 6.4 | 11.3 | 0.00 | 0.00 | 0.00 | 83 | 1013.4 |
| 20260506001154 | 13 | 304 | 6.4 | 11.3 | 0.00 | 0.00 | 0.00 | 83 | 1013.4 |
| 20260506001040 | 13 | 331 | 6.4 | 12.9 | 0.00 | 0.00 | 0.00 | 83 | 1013.4 |
| 20260506000928 | 13 | 319 | 6.4 | 12.9 | 0.00 | 0.00 | 0.00 | 82 | 1013.4 |
| 20260506000746 | 13 | 340 | 6.4 | 12.9 | 0.00 | 0.00 | 0.00 | 82 | 1013.4 |
| 20260506000625 | 13 | 309 | 8.0 | 12.9 | 0.00 | 0.00 | 0.00 | 82 | 1013.4 |
| 20260506000610 | 13 | 296 | 8.0 | 12.9 | 0.00 | 0.00 | 0.00 | 82 | 1013.4 |
| 20260506000431 | 13 | 315 | 8.0 | 12.9 | 0.00 | 0.00 | 0.00 | 81 | 1013.4 |
| 20260506000240 | 14 | 327 | 8.0 | 12.9 | 0.00 | 0.00 | 0.00 | 81 | 1013.4 |
| 20260506000040 | 14 | 301 | 8.0 | 12.9 | 0.00 | 0.00 | 0.00 | 80 | 1013.4 |
| 20260505235959 | 14 | 340 | 8.0 | 12.9 | 0.00 | 0.00 | 0.00 | 80 | 1013.4 |
| 20260505235749 | 14 | 323 | 8.0 | 12.9 | 0.00 | 0.00 | 0.00 | 80 | 1013.4 |
| 20260505235613 | 14 | 280 | 6.4 | 12.9 | 0.00 | 0.00 | 0.00 | 79 | 1013.3 |
| 20260505235555 | 14 | 290 | 6.4 | 12.9 | 0.00 | 0.00 | 0.00 | 79 | 1013.3 |
| 20260505235408 | 14 | 284 | 6.4 | 12.9 | 0.00 | 0.00 | 0.00 | 79 | 1013.3 |
| 20260505235147 | 15 | 327 | 6.4 | 12.9 | 0.00 | 0.00 | 0.00 | 78 | 1013.4 |
| 20260505235031 | 15 | 304 | 6.4 | 12.9 | 0.00 | 0.00 | 0.00 | 78 | 1013.3 |
| 20260505234937 | 15 | 337 | 6.4 | 12.9 | 0.00 | 0.00 | 0.00 | 78 | 1013.3 |
| 20260505234752 | 15 | 287 | 6.4 | 11.3 | 0.00 | 0.00 | 0.00 | 77 | 1013.3 |
| 20260505234558 | 15 | 313 | 6.4 | 12.9 | 0.00 | 0.00 | 0.00 | 76 | 1013.3 |
| 20260505234527 | 15 | 309 | 6.4 | 12.9 | 0.00 | 0.00 | 0.00 | 76 | 1013.4 |
| 20260505234252 | 15 | 254 | 6.4 | 12.9 | 0.00 | 0.00 | 0.00 | 76 | 1013.4 |
| 20260505234112 | 15 | 308 | 6.4 | 12.9 | 0.00 | 0.00 | 0.00 | 75 | 1013.3 |
| 20260505234034 | 15 | 277 | 6.4 | 12.9 | 0.00 | 0.00 | 0.00 | 75 | 1013.3 |
| 20260505233854 | 15 | 292 | 6.4 | 12.9 | 0.00 | 0.00 | 0.00 | 75 | 1013.3 |
| 20260505233700 | 15 | 274 | 4.8 | 12.9 | 0.00 | 0.00 | 0.00 | 74 | 1013.3 |
| 20260505233525 | 15 | 274 | 4.8 | 12.9 | 0.00 | 0.00 | 0.00 | 74 | 1013.3 |
| 20260505233506 | 15 | 273 | 4.8 | 12.9 | 0.00 | 0.00 | 0.00 | 74 | 1013.3 |
| 20260505233329 | 16 | 0 | 4.8 | 11.3 | 0.00 | 0.00 | 0.00 | 73 | 1013.2 |
| 20260505233154 | 16 | 278 | 4.8 | 9.7 | 0.00 | 0.00 | 0.00 | 73 | 1013.2 |
| 20260505233119 | 16 | 294 | 4.8 | 9.7 | 0.00 | 0.00 | 0.00 | 72 | 1013.3 |
| 20260505232859 | 16 | 306 | 4.8 | 14.5 | 0.00 | 0.00 | 0.00 | 72 | 1013.3 |
| 20260505232720 | 16 | 271 | 4.8 | 14.5 | 0.00 | 0.00 | 0.00 | 72 | 1013.3 |
| 20260505232610 | 16 | 279 | 4.8 | 14.5 | 0.00 | 0.00 | 0.00 | 72 | 1013.3 |
| 20260505232542 | 16 | 286 | 4.8 | 14.5 | 0.00 | 0.00 | 0.00 | 72 | 1013.3 |
| 20260505232324 | 16 | 292 | 4.8 | 14.5 | 0.00 | 0.00 | 0.00 | 72 | 1013.3 |
| 20260505232150 | 16 | 265 | 4.8 | 14.5 | 0.00 | 0.00 | 0.00 | 71 | 1013.3 |
| 20260505232117 | 16 | 269 | 4.8 | 14.5 | 0.00 | 0.00 | 0.00 | 71 | 1013.3 |
| 20260505231907 | 16 | 305 | 3.2 | 8.0 | 0.00 | 0.00 | 0.00 | 71 | 1013.3 |
| 20260505231732 | 16 | 333 | 3.2 | 8.0 | 0.00 | 0.00 | 0.00 | 71 | 1013.2 |
| 20260505231609 | 16 | 314 | 3.2 | 8.0 | 0.00 | 0.00 | 0.00 | 71 | 1013.2 |
| 20260505231508 | 16 | 9 | 3.2 | 8.0 | 0.00 | 0.00 | 0.00 | 71 | 1013.3 |
| 20260505231319 | 16 | 266 | 4.8 | 8.0 | 0.00 | 0.00 | 0.00 | 71 | 1013.2 |
| 20260505231132 | 16 | 25 | 4.8 | 8.0 | 0.00 | 0.00 | 0.00 | 71 | 1013.2 |
| 20260505231101 | 16 | 9 | 4.8 | 8.0 | 0.00 | 0.00 | 0.00 | 71 | 1013.2 |
| 20260505230922 | 16 | 271 | 4.8 | 8.0 | 0.00 | 0.00 | 0.00 | 70 | 1013.2 |
| 20260505230648 | 16 | 322 | 4.8 | 8.0 | 0.00 | 0.00 | 0.00 | 70 | 1013.2 |
| 20260505230557 | 16 | 311 | 4.8 | 8.0 | 0.00 | 0.00 | 0.00 | 70 | 1013.2 |
| 20260505230516 | 16 | 306 | 4.8 | 8.0 | 0.00 | 0.00 | 0.00 | 70 | 1013.3 |
| 20260505230337 | 16 | 343 | 4.8 | 8.0 | 0.00 | 0.00 | 0.00 | 70 | 1013.2 |
| 20260505230105 | 16 | 308 | 4.8 | 8.0 | 0.00 | 0.00 | 0.00 | 70 | 1013.2 |
| 20260505230041 | 16 | 290 | 4.8 | 8.0 | 0.00 | 0.00 | 0.00 | 70 | 1013.2 |
| 20260505225900 | 16 | 303 | 4.8 | 8.0 | 0.00 | 0.00 | 0.00 | 69 | 1013.2 |
| 20260505225619 | 16 | 310 | 4.8 | 8.0 | 0.00 | 0.00 | 0.00 | 69 | 1013.2 |
| 20260505225458 | 16 | 307 | 4.8 | 6.4 | 0.00 | 0.00 | 0.00 | 69 | 1013.2 |
| 20260505225415 | 16 | 315 | 4.8 | 6.4 | 0.00 | 0.00 | 0.00 | 69 | 1013.2 |
| 20260505225216 | 16 | 306 | 4.8 | 6.4 | 0.00 | 0.00 | 0.00 | 69 | 1013.2 |
| 20260505225028 | 17 | 311 | 4.8 | 6.4 | 0.00 | 0.00 | 0.00 | 69 | 1013.2 |
| 20260505225007 | 17 | 327 | 4.8 | 6.4 | 0.00 | 0.00 | 0.00 | 69 | 1013.2 |
| 20260505224843 | 17 | 303 | 3.2 | 6.4 | 0.00 | 0.00 | 0.00 | 69 | 1013.2 |
| 20260505224721 | 17 | 319 | 3.2 | 6.4 | 0.00 | 0.00 | 0.00 | 69 | 1013.3 |
| 20260505224610 | 17 | 307 | 3.2 | 6.4 | 0.00 | 0.00 | 0.00 | 69 | 1013.3 |
| 20260505224510 | 17 | 307 | 3.2 | 6.4 | 0.00 | 0.00 | 0.00 | 69 | 1013.3 |
| 20260505224330 | 17 | 288 | 3.2 | 6.4 | 0.00 | 0.00 | 0.00 | 69 | 1013.3 |
| 20260505224220 | 17 | 318 | 3.2 | 6.4 | 0.00 | 0.00 | 0.00 | 69 | 1013.4 |
| 20260505224203 | 17 | 0 | 3.2 | 6.4 | 0.00 | 0.00 | 0.00 | 69 | 1013.4 |
| 20260505224022 | 17 | 311 | 3.2 | 6.4 | 0.00 | 0.00 | 0.00 | 69 | 1013.4 |
| 20260505223842 | 17 | 23 | 3.2 | 6.4 | 0.00 | 0.00 | 0.00 | 69 | 1013.3 |
| 20260505223502 | 17 | 325 | 3.2 | 6.4 | 0.00 | 0.00 | 0.00 | 69 | 1013.4 |
| 20260505223335 | 17 | 355 | 3.2 | 6.4 | 0.00 | 0.00 | 0.00 | 69 | 1013.3 |
| 20260505223217 | 17 | 331 | 3.2 | 6.4 | 0.00 | 0.00 | 0.00 | 69 | 1013.4 |
| 20260505222805 | 17 | 355 | 3.2 | 6.4 | 0.00 | 0.00 | 0.00 | 69 | 1013.3 |
| 20260505222733 | 22 | 188 | 0.0 | 1.6 | 0.00 | 0.00 | 0.00 | 55 | 1011.4 |
| 20260505222622 | 17 | 337 | 3.2 | 6.4 | 0.00 | 0.00 | 0.00 | 69 | 1013.4 |
| 20260505222526 | 17 | 302 | 3.2 | 6.4 | 0.00 | 0.00 | 0.00 | 69 | 1013.3 |
| 20260505222421 | 17 | 312 | 3.2 | 6.4 | 0.00 | 0.00 | 0.00 | 69 | 1013.3 |
| 20260505222220 | 17 | 307 | 3.2 | 9.7 | 0.00 | 0.00 | 0.00 | 68 | 1013.3 |
| 20260505222039 | 17 | 290 | 3.2 | 9.7 | 0.00 | 0.00 | 0.00 | 68 | 1013.3 |
| 20260505221959 | 17 | 309 | 3.2 | 9.7 | 0.00 | 0.00 | 0.00 | 68 | 1013.3 |
| 20260505221802 | 17 | 287 | 3.2 | 9.7 | 0.00 | 0.00 | 0.00 | 68 | 1013.3 |
| 20260505221610 | 17 | 314 | 3.2 | 9.7 | 0.00 | 0.00 | 0.00 | 68 | 1013.3 |
| 20260505221507 | 17 | 286 | 3.2 | 9.7 | 0.00 | 0.00 | 0.00 | 68 | 1013.3 |
| 20260505221421 | 17 | 298 | 3.2 | 9.7 | 0.00 | 0.00 | 0.00 | 68 | 1013.3 |
| 20260505221303 | 23 | 142 | 4.8 | 11.3 | 0.00 | 0.00 | 0.00 | 53 | 1011.1 |
| 20260505221159 | 17 | 289 | 3.2 | 6.4 | 0.00 | 0.00 | 0.00 | 68 | 1013.2 |
| 20260505221033 | 17 | 314 | 3.2 | 6.4 | 0.00 | 0.00 | 0.00 | 68 | 1013.2 |
| 20260505221019 | 17 | 321 | 3.2 | 6.4 | 0.00 | 0.00 | 0.00 | 68 | 1013.2 |
| 20260505220905 | 17 | 309 | 3.2 | 6.4 | 0.00 | 0.00 | 0.00 | 68 | 1013.2 |
| 20260505220745 | 17 | 310 | 3.2 | 6.4 | 0.00 | 0.00 | 0.00 | 68 | 1013.2 |
| 20260505220401 | 17 | 317 | 3.2 | 6.4 | 0.00 | 0.00 | 0.00 | 68 | 1013.2 |
| 20260505220312 | 26 | 217 | 8.0 | 19.3 | 0.00 | 0.00 | 0.00 | 40 | 1011.0 |
| 20260505220150 | 17 | 355 | 3.2 | 6.4 | 0.00 | 0.00 | 0.00 | 69 | 1013.2 |
| 20260505220140 | 27 | 157 | 8.0 | 20.9 | 0.00 | 0.00 | 0.00 | 41 | 1011.1 |
| 20260505220121 | 27 | 174 | 8.0 | 16.1 | 0.00 | 0.00 | 0.00 | 42 | 1011.1 |
| 20260505215958 | 17 | 327 | 3.2 | 9.7 | 0.00 | 0.00 | 0.00 | 69 | 1013.2 |
| 20260505215952 | 17 | 326 | 3.2 | 9.7 | 0.00 | 0.00 | 0.00 | 69 | 1013.2 |
| 20260505215750 | 17 | 316 | 4.8 | 9.7 | 0.00 | 0.00 | 0.00 | 69 | 1013.2 |
| 20260505215717 | 28 | 211 | 6.4 | 16.1 | 0.00 | 0.00 | 0.00 | 40 | 1011.2 |
| 20260505215628 | 28 | 178 | 8.0 | 27.4 | 0.00 | 0.00 | 0.00 | 40 | 1011.6 |
| 20260505215541 | 17 | 319 | 4.8 | 9.7 | 0.00 | 0.00 | 0.00 | 69 | 1013.2 |
| 20260505215455 | 17 | 344 | 4.8 | 9.7 | 0.00 | 0.00 | 0.00 | 69 | 1013.2 |
| 20260505215401 | 17 | 355 | 4.8 | 9.7 | 0.00 | 0.00 | 0.00 | 69 | 1013.1 |
| 20260505215152 | 17 | 350 | 4.8 | 9.7 | 0.00 | 0.00 | 0.00 | 69 | 1013.1 |
| 20260505214956 | 17 | 328 | 3.2 | 9.7 | 0.00 | 0.00 | 0.00 | 69 | 1013.1 |
| 20260505214946 | 17 | 327 | 3.2 | 9.7 | 0.00 | 0.00 | 0.00 | 69 | 1013.1 |
| 20260505214753 | 17 | 302 | 3.2 | 9.7 | 0.00 | 0.00 | 0.00 | 69 | 1013.1 |
| 20260505214656 | 29 | 142 | 4.8 | 16.1 | 0.00 | 0.00 | 0.00 | 39 | 1011.4 |
| 20260505214554 | 17 | 5 | 3.2 | 8.0 | 0.00 | 0.00 | 0.00 | 69 | 1013.1 |
| 20260505214448 | 17 | 355 | 3.2 | 8.0 | 0.00 | 0.00 | 0.00 | 69 | 1013.2 |
| 20260505214341 | 17 | 5 | 3.2 | 8.0 | 0.00 | 0.00 | 0.00 | 69 | 1013.2 |
| 20260505214146 | 17 | 0 | 3.2 | 8.0 | 0.00 | 0.00 | 0.00 | 70 | 1013.1 |
| 20260505214016 | 17 | 333 | 3.2 | 8.0 | 0.00 | 0.00 | 0.00 | 70 | 1013.2 |
| 20260505214004 | 17 | 326 | 3.2 | 8.0 | 0.00 | 0.00 | 0.00 | 70 | 1013.2 |
| 20260505213820 | 17 | 11 | 3.2 | 8.0 | 0.00 | 0.00 | 0.00 | 70 | 1013.1 |
| 20260505213702 | 17 | 5 | 3.2 | 6.4 | 0.00 | 0.00 | 0.00 | 70 | 1013.2 |
| 20260505213626 | 17 | 0 | 3.2 | 8.0 | 0.00 | 0.00 | 0.00 | 70 | 1013.2 |
| 20260505213543 | 17 | 0 | 3.2 | 8.0 | 0.00 | 0.00 | 0.00 | 70 | 1013.1 |
| 20260505213404 | 17 | 34 | 3.2 | 8.0 | 0.00 | 0.00 | 0.00 | 70 | 1013.1 |
| 20260505213017 | 17 | 336 | 4.8 | 12.9 | 0.00 | 0.00 | 0.00 | 70 | 1013.2 |
| 20260505212819 | 17 | 321 | 4.8 | 12.9 | 0.00 | 0.00 | 0.00 | 70 | 1013.1 |
| 20260505212641 | 17 | 299 | 4.8 | 17.7 | 0.00 | 0.00 | 0.00 | 70 | 1013.1 |
| 20260505212603 | 17 | 0 | 4.8 | 17.7 | 0.00 | 0.00 | 0.00 | 70 | 1013.1 |
| 20260505212510 | 17 | 0 | 4.8 | 17.7 | 0.00 | 0.00 | 0.00 | 70 | 1013.1 |
| 20260505212322 | 17 | 337 | 4.8 | 17.7 | 0.00 | 0.00 | 0.00 | 70 | 1013.1 |
| 20260505212127 | 17 | 0 | 4.8 | 17.7 | 0.00 | 0.00 | 0.00 | 70 | 1013.2 |
| 20260505212113 | 17 | 11 | 4.8 | 17.7 | 0.00 | 0.00 | 0.00 | 70 | 1013.2 |
| 20260505211926 | 17 | 336 | 4.8 | 17.7 | 0.00 | 0.00 | 0.00 | 70 | 1013.1 |
| 20260505211758 | 17 | 0 | 3.2 | 12.9 | 0.00 | 0.00 | 0.00 | 70 | 1013.1 |
| 20260505211417 | 17 | 53 | 4.8 | 12.9 | 0.00 | 0.00 | 0.00 | 70 | 1013.1 |
| 20260505211149 | 17 | 39 | 4.8 | 9.7 | 0.00 | 0.00 | 0.00 | 70 | 1013.1 |
| 20260505211005 | 17 | 348 | 4.8 | 11.3 | 0.00 | 0.00 | 0.00 | 70 | 1013.1 |
| 20260505210954 | 17 | 12 | 4.8 | 11.3 | 0.00 | 0.00 | 0.00 | 70 | 1013.1 |
| 20260505210744 | 17 | 342 | 4.8 | 11.3 | 0.00 | 0.00 | 0.00 | 70 | 1013.1 |
| 20260505210525 | 17 | 330 | 6.4 | 11.3 | 0.00 | 0.00 | 0.00 | 70 | 1013.1 |
| 20260505210453 | 17 | 339 | 6.4 | 11.3 | 0.00 | 0.00 | 0.00 | 70 | 1013.2 |
| 20260505210353 | 17 | 355 | 6.4 | 11.3 | 0.00 | 0.00 | 0.00 | 70 | 1013.2 |
| 20260505210157 | 17 | 292 | 6.4 | 11.3 | 0.00 | 0.00 | 0.00 | 70 | 1013.1 |
| 20260505210026 | 17 | 315 | 6.4 | 11.3 | 0.00 | 0.00 | 0.00 | 70 | 1013.1 |
| 20260505210000 | 17 | 319 | 6.4 | 9.7 | 0.00 | 0.00 | 0.00 | 70 | 1013.1 |
| 20260505205742 | 17 | 346 | 4.8 | 9.7 | 0.00 | 0.00 | 0.00 | 70 | 1013.1 |
| 20260505205533 | 17 | 315 | 4.8 | 9.7 | 0.00 | 0.00 | 0.00 | 70 | 1013.2 |
| 20260505205508 | 17 | 310 | 4.8 | 12.9 | 0.00 | 0.00 | 0.00 | 69 | 1013.2 |
| 20260505205318 | 17 | 331 | 4.8 | 12.9 | 0.00 | 0.00 | 0.00 | 69 | 1013.1 |
| 20260505205300 | 29 | 227 | 4.8 | 19.3 | 0.00 | 0.00 | 0.00 | 33 | 1011.4 |
| 20260505205114 | 17 | 337 | 3.2 | 12.9 | 0.00 | 0.00 | 0.00 | 69 | 1013.1 |
| 20260505204940 | 17 | 307 | 3.2 | 12.9 | 0.00 | 0.00 | 0.00 | 69 | 1013.1 |
| 20260505204913 | 17 | 326 | 3.2 | 12.9 | 0.00 | 0.00 | 0.00 | 69 | 1013.1 |
| 20260505204718 | 17 | 303 | 4.8 | 12.9 | 0.00 | 0.00 | 0.00 | 69 | 1013.1 |
| 20260505204532 | 17 | 350 | 4.8 | 12.9 | 0.00 | 0.00 | 0.00 | 69 | 1013.1 |
| 20260505204442 | 17 | 329 | 3.2 | 8.0 | 0.00 | 0.00 | 0.00 | 69 | 1013.1 |
| 20260505204326 | 17 | 325 | 3.2 | 8.0 | 0.00 | 0.00 | 0.00 | 69 | 1013.1 |
| 20260505204117 | 17 | 349 | 4.8 | 9.7 | 0.00 | 0.00 | 0.00 | 70 | 1013.1 |
| 20260505203941 | 17 | 344 | 4.8 | 12.9 | 0.00 | 0.00 | 0.00 | 70 | 1013.0 |
| 20260505203921 | 17 | 326 | 4.8 | 12.9 | 0.00 | 0.00 | 0.00 | 70 | 1013.0 |
| 20260505203712 | 17 | 298 | 4.8 | 12.9 | 0.00 | 0.00 | 0.00 | 70 | 1013.1 |
| 20260505203659 | 29 | 221 | 6.4 | 14.5 | 0.00 | 0.00 | 0.00 | 32 | 1011.4 |
| 20260505203516 | 18 | 272 | 4.8 | 12.9 | 0.00 | 0.00 | 0.00 | 71 | 1013.1 |
| 20260505203449 | 18 | 277 | 4.8 | 12.9 | 0.00 | 0.00 | 0.00 | 71 | 1013.1 |
| 20260505203316 | 18 | 273 | 4.8 | 12.9 | 0.00 | 0.00 | 0.00 | 71 | 1013.1 |
| 20260505203115 | 18 | 340 | 3.2 | 9.7 | 0.00 | 0.00 | 0.00 | 71 | 1012.9 |
| 20260505202941 | 18 | 17 | 3.2 | 9.7 | 0.00 | 0.00 | 0.00 | 71 | 1012.9 |
| 20260505202839 | 18 | 29 | 3.2 | 9.7 | 0.00 | 0.00 | 0.00 | 71 | 1012.9 |
| 20260505202642 | 18 | 30 | 3.2 | 12.9 | 0.00 | 0.00 | 0.00 | 71 | 1012.9 |
| 20260505202500 | 18 | 19 | 3.2 | 12.9 | 0.00 | 0.00 | 0.00 | 71 | 1012.9 |
| 20260505202453 | 18 | 42 | 3.2 | 12.9 | 0.00 | 0.00 | 0.00 | 71 | 1012.9 |
| 20260505202250 | 18 | 49 | 3.2 | 12.9 | 0.00 | 0.00 | 0.00 | 71 | 1012.9 |
| 20260505202043 | 18 | 88 | 4.8 | 12.9 | 0.00 | 0.00 | 0.00 | 71 | 1012.8 |
| 20260505201934 | 18 | 5 | 4.8 | 12.9 | 0.00 | 0.00 | 0.00 | 71 | 1012.8 |
| 20260505201925 | 28 | 321 | 8.0 | 19.3 | 0.00 | 0.00 | 0.00 | 32 | 1011.5 |
| 20260505201842 | 18 | 10 | 4.8 | 12.9 | 0.00 | 0.00 | 0.00 | 71 | 1012.8 |
| 20260505201634 | 18 | 33 | 4.8 | 11.3 | 0.00 | 0.00 | 0.00 | 70 | 1012.8 |
| 20260505201450 | 18 | 116 | 4.8 | 11.3 | 0.00 | 0.00 | 0.00 | 70 | 1012.7 |
| 20260505201441 | 18 | 130 | 4.8 | 11.3 | 0.00 | 0.00 | 0.00 | 70 | 1012.7 |
| 20260505201248 | 18 | 88 | 4.8 | 11.3 | 0.00 | 0.00 | 0.00 | 70 | 1012.7 |
| 20260505201102 | 18 | 71 | 4.8 | 12.9 | 0.00 | 0.00 | 0.00 | 70 | 1012.6 |
| 20260505201001 | 18 | 57 | 3.2 | 12.9 | 0.00 | 0.00 | 0.00 | 70 | 1012.6 |
| 20260505200922 | 18 | 80 | 3.2 | 12.9 | 0.00 | 0.00 | 0.00 | 69 | 1012.6 |
| 20260505200704 | 18 | 101 | 4.8 | 12.9 | 0.00 | 0.00 | 0.00 | 69 | 1012.6 |
| 20260505200510 | 18 | 107 | 3.2 | 12.9 | 0.00 | 0.00 | 0.00 | 69 | 1012.6 |
| 20260505200503 | 18 | 90 | 3.2 | 12.9 | 0.00 | 0.00 | 0.00 | 69 | 1012.6 |
| 20260505200339 | 18 | 52 | 3.2 | 12.9 | 0.00 | 0.00 | 0.00 | 68 | 1012.6 |
| 20260505200149 | 18 | 105 | 3.2 | 9.7 | 0.00 | 0.00 | 0.00 | 68 | 1012.6 |
| 20260505200058 | 18 | 90 | 3.2 | 9.7 | 0.00 | 0.00 | 0.00 | 68 | 1012.5 |
| 20260505200018 | 18 | 111 | 3.2 | 9.7 | 0.00 | 0.00 | 0.00 | 68 | 1012.5 |
| 20260505195837 | 18 | 96 | 3.2 | 9.7 | 0.00 | 0.00 | 0.00 | 67 | 1012.5 |
| 20260505195507 | 18 | 78 | 3.2 | 9.7 | 0.00 | 0.00 | 0.00 | 67 | 1012.5 |
| 20260505195329 | 18 | 67 | 3.2 | 9.7 | 0.00 | 0.00 | 0.00 | 67 | 1012.5 |
| 20260505195220 | 18 | 102 | 3.2 | 9.7 | 0.00 | 0.00 | 0.00 | 66 | 1012.5 |
| 20260505195137 | 18 | 60 | 3.2 | 12.9 | 0.00 | 0.00 | 0.00 | 66 | 1012.5 |
| 20260505195032 | 18 | 38 | 3.2 | 12.9 | 0.00 | 0.00 | 0.00 | 66 | 1012.4 |
| 20260505194848 | 18 | 38 | 3.2 | 12.9 | 0.00 | 0.00 | 0.00 | 65 | 1012.4 |
| 20260505194509 | 18 | 79 | 3.2 | 12.9 | 0.00 | 0.00 | 0.00 | 65 | 1012.4 |
| 20260505194320 | 19 | 40 | 3.2 | 12.9 | 0.00 | 0.00 | 0.00 | 65 | 1012.3 |
| 20260505194139 | 19 | 83 | 3.2 | 12.9 | 0.00 | 0.00 | 0.00 | 64 | 1012.3 |
| 20260505194022 | 19 | 69 | 3.2 | 8.0 | 0.00 | 0.00 | 0.00 | 64 | 1012.3 |
| 20260505193925 | 19 | 38 | 3.2 | 8.0 | 0.00 | 0.00 | 0.00 | 64 | 1012.3 |
| 20260505193740 | 19 | 55 | 3.2 | 6.4 | 0.00 | 0.00 | 0.00 | 64 | 1012.3 |
| 20260505193411 | 19 | 93 | 3.2 | 6.4 | 0.00 | 0.00 | 0.00 | 64 | 1012.2 |
| 20260505193239 | 19 | 81 | 1.6 | 6.4 | 0.00 | 0.00 | 0.00 | 64 | 1012.2 |
| 20260505193042 | 19 | 67 | 1.6 | 6.4 | 0.00 | 0.00 | 0.00 | 64 | 1012.2 |
| 20260505193005 | 19 | 88 | 1.6 | 4.8 | 0.00 | 0.00 | 0.00 | 63 | 1012.2 |
| 20260505192858 | 19 | 62 | 1.6 | 4.8 | 0.00 | 0.00 | 0.00 | 63 | 1012.2 |
| 20260505192706 | 19 | 59 | 1.6 | 4.8 | 0.00 | 0.00 | 0.00 | 63 | 1012.2 |
| 20260505192601 | 19 | 83 | 1.6 | 4.8 | 0.00 | 0.00 | 0.00 | 63 | 1012.2 |
| 20260505192535 | 19 | 58 | 1.6 | 4.8 | 0.00 | 0.00 | 0.00 | 63 | 1012.2 |
| 20260505192355 | 19 | 57 | 1.6 | 4.8 | 0.00 | 0.00 | 0.00 | 63 | 1012.1 |
| 20260505191946 | 19 | 86 | 1.6 | 4.8 | 0.00 | 0.00 | 0.00 | 63 | 1012.1 |
| 20260505191917 | 19 | 87 | 1.6 | 4.8 | 0.00 | 0.00 | 0.00 | 63 | 1012.1 |
| 20260505191748 | 19 | 46 | 1.6 | 6.4 | 0.00 | 0.00 | 0.00 | 63 | 1012.1 |
| 20260505191547 | 19 | 121 | 1.6 | 6.4 | 0.00 | 0.00 | 0.00 | 62 | 1012.1 |
| 20260505191411 | 20 | 121 | 1.6 | 8.0 | 0.00 | 0.00 | 0.00 | 62 | 1012.1 |
| 20260505191349 | 20 | 121 | 1.6 | 8.0 | 0.00 | 0.00 | 0.00 | 62 | 1012.1 |
| 20260505191241 | 29 | 309 | 8.0 | 17.7 | 0.00 | 0.00 | 0.00 | 33 | 1011.8 |
| 20260505191147 | 20 | 84 | 1.6 | 8.0 | 0.00 | 0.00 | 0.00 | 62 | 1012.1 |
| 20260505191000 | 20 | 65 | 1.6 | 8.0 | 0.00 | 0.00 | 0.00 | 62 | 1012.1 |
| 20260505190911 | 20 | 84 | 1.6 | 8.0 | 0.00 | 0.00 | 0.00 | 62 | 1012.1 |
| 20260505190832 | 29 | 294 | 4.8 | 14.5 | 0.00 | 0.00 | 0.00 | 33 | 1011.8 |
| 20260505190734 | 20 | 71 | 1.6 | 8.0 | 0.00 | 0.00 | 0.00 | 61 | 1012.0 |
| 20260505190539 | 28 | 214 | 4.8 | 12.9 | 0.00 | 0.00 | 0.00 | 34 | 1011.8 |
| 20260505190524 | 20 | 30 | 1.6 | 6.4 | 0.00 | 0.00 | 0.00 | 61 | 1012.0 |
| 20260505190439 | 28 | 280 | 6.4 | 16.1 | 0.00 | 0.00 | 0.00 | 35 | 1012.1 |
| 20260505190405 | 20 | 57 | 1.6 | 8.0 | 0.00 | 0.00 | 0.00 | 61 | 1012.0 |
| 20260505190314 | 20 | 57 | 1.6 | 8.0 | 0.00 | 0.00 | 0.00 | 60 | 1011.9 |
| 20260505190132 | 20 | 45 | 3.2 | 8.0 | 0.00 | 0.00 | 0.00 | 60 | 1011.9 |
| 20260505185916 | 20 | 67 | 3.2 | 8.0 | 0.00 | 0.00 | 0.00 | 60 | 1011.8 |
| 20260505185906 | 20 | 91 | 3.2 | 8.0 | 0.00 | 0.00 | 0.00 | 60 | 1011.8 |
| 20260505185716 | 20 | 108 | 3.2 | 8.0 | 0.00 | 0.00 | 0.00 | 59 | 1011.8 |
| 20260505185512 | 20 | 73 | 3.2 | 8.0 | 0.00 | 0.00 | 0.00 | 58 | 1011.9 |
| 20260505185408 | 20 | 72 | 3.2 | 6.4 | 0.00 | 0.00 | 0.00 | 58 | 1011.8 |
| 20260505185310 | 20 | 59 | 3.2 | 6.4 | 0.00 | 0.00 | 0.00 | 58 | 1011.8 |
| 20260505185105 | 21 | 109 | 1.6 | 6.4 | 0.00 | 0.00 | 0.00 | 58 | 1011.8 |
| 20260505184922 | 21 | 59 | 1.6 | 6.4 | 0.00 | 0.00 | 0.00 | 57 | 1011.7 |
| 20260505184912 | 21 | 59 | 1.6 | 6.4 | 0.00 | 0.00 | 0.00 | 57 | 1011.7 |
| 20260505184712 | 21 | 75 | 1.6 | 8.0 | 0.00 | 0.00 | 0.00 | 57 | 1011.8 |
| 20260505184503 | 21 | 81 | 1.6 | 8.0 | 0.00 | 0.00 | 0.00 | 56 | 1011.7 |
| 20260505184351 | 21 | 37 | 1.6 | 8.0 | 0.00 | 0.00 | 0.00 | 56 | 1011.7 |
| 20260505184258 | 21 | 50 | 1.6 | 8.0 | 0.00 | 0.00 | 0.00 | 56 | 1011.7 |
| 20260505184108 | 21 | 65 | 1.6 | 8.0 | 0.00 | 0.00 | 0.00 | 56 | 1011.8 |
| 20260505183915 | 21 | 63 | 1.6 | 8.0 | 0.00 | 0.00 | 0.00 | 57 | 1011.8 |
| 20260505183905 | 21 | 68 | 0.0 | 8.0 | 0.00 | 0.00 | 0.00 | 57 | 1011.8 |
| 20260505183729 | 21 | 53 | 0.0 | 3.2 | 0.00 | 0.00 | 0.00 | 57 | 1011.7 |
| 20260505183556 | 21 | 187 | 0.0 | 1.6 | 0.00 | 0.00 | 0.00 | 56 | 1011.7 |
| 20260505183456 | 21 | 188 | 0.0 | 0.0 | 0.00 | 0.00 | 0.00 | 56 | 1011.6 |
| 20260505183352 | 21 | 188 | 0.0 | 1.6 | 0.00 | 0.00 | 0.00 | 56 | 1011.6 |
| 20260505183146 | 21 | 187 | 0.0 | 1.6 | 0.00 | 0.00 | 0.00 | 56 | 1011.6 |
| 20260505183021 | 21 | 187 | 0.0 | 1.6 | 0.00 | 0.00 | 0.00 | 55 | 1011.6 |
| 20260505182839 | 21 | 188 | 0.0 | 1.6 | 0.00 | 0.00 | 0.00 | 55 | 1011.6 |
| 20260505182623 | 21 | 188 | 0.0 | 1.6 | 0.00 | 0.00 | 0.00 | 55 | 1011.6 |
| 20260505182511 | 21 | 188 | 0.0 | 1.6 | 0.00 | 0.00 | 0.00 | 55 | 1011.6 |
| 20260505182344 | 21 | 188 | 0.0 | 1.6 | 0.00 | 0.00 | 0.00 | 55 | 1011.6 |
| 20260505182150 | 22 | 187 | 0.0 | 3.2 | 0.00 | 0.00 | 0.00 | 55 | 1011.6 |
| 20260505181914 | 22 | 187 | 0.0 | 3.2 | 0.00 | 0.00 | 0.00 | 55 | 1011.6 |
| 20260505181721 | 22 | 188 | 0.0 | 3.2 | 0.00 | 0.00 | 0.00 | 55 | 1011.5 |
| 20260505181533 | 22 | 187 | 0.0 | 3.2 | 0.00 | 0.00 | 0.00 | 55 | 1011.5 |
| 20260505181506 | 22 | 188 | 0.0 | 3.2 | 0.00 | 0.00 | 0.00 | 55 | 1011.5 |
| 20260505181353 | 22 | 188 | 0.0 | 3.2 | 0.00 | 0.00 | 0.00 | 55 | 1011.5 |
| 20260505181227 | 22 | 188 | 0.0 | 1.6 | 0.00 | 0.00 | 0.00 | 55 | 1011.4 |
| 20260505180823 | 22 | 188 | 0.0 | 1.6 | 0.00 | 0.00 | 0.00 | 55 | 1011.4 |
| 20260505180632 | 22 | 188 | 0.0 | 1.6 | 0.00 | 0.00 | 0.00 | 55 | 1011.4 |
| 20260505180419 | 22 | 188 | 0.0 | 1.6 | 0.00 | 0.00 | 0.00 | 55 | 1011.4 |
| 20260505180336 | 22 | 188 | 0.0 | 1.6 | 0.00 | 0.00 | 0.00 | 54 | 1011.4 |
| 20260505180217 | 22 | 187 | 0.0 | 1.6 | 0.00 | 0.00 | 0.00 | 54 | 1011.4 |
| 20260505180020 | 22 | 188 | 0.0 | 3.2 | 0.00 | 0.00 | 0.00 | 54 | 1011.4 |
| 20260505175905 | 22 | 187 | 0.0 | 3.2 | 0.00 | 0.00 | 0.00 | 54 | 1011.4 |
| 20260505175822 | 22 | 187 | 0.0 | 3.2 | 0.00 | 0.00 | 0.00 | 54 | 1011.4 |
| 20260505175613 | 22 | 188 | 1.6 | 3.2 | 0.00 | 0.00 | 0.00 | 54 | 1011.4 |
| 20260505175433 | 22 | 187 | 1.6 | 3.2 | 0.00 | 0.00 | 0.00 | 54 | 1011.4 |
| 20260505175340 | 22 | 188 | 1.6 | 3.2 | 0.00 | 0.00 | 0.00 | 54 | 1011.4 |
| 20260505175241 | 22 | 188 | 1.6 | 3.2 | 0.00 | 0.00 | 0.00 | 54 | 1011.5 |
| 20260505175044 | 22 | 164 | 1.6 | 3.2 | 0.00 | 0.00 | 0.00 | 54 | 1011.4 |
| 20260505174936 | 22 | 190 | 1.6 | 3.2 | 0.00 | 0.00 | 0.00 | 54 | 1011.5 |
| 20260505174911 | 22 | 190 | 1.6 | 4.8 | 0.00 | 0.00 | 0.00 | 54 | 1011.5 |
| 20260505174730 | 22 | 188 | 1.6 | 6.4 | 0.00 | 0.00 | 0.00 | 54 | 1011.4 |
| 20260505174548 | 22 | 103 | 1.6 | 6.4 | 0.00 | 0.00 | 0.00 | 54 | 1011.4 |
| 20260505174516 | 22 | 173 | 1.6 | 8.0 | 0.00 | 0.00 | 0.00 | 54 | 1011.4 |
| 20260505174147 | 22 | 182 | 1.6 | 8.0 | 0.00 | 0.00 | 0.00 | 54 | 1011.3 |
| 20260505174056 | 27 | 253 | 8.0 | 24.1 | 0.00 | 0.00 | 0.00 | 39 | 1013.0 |
| 20260505173947 | 22 | 174 | 3.2 | 9.7 | 0.00 | 0.00 | 0.00 | 54 | 1011.3 |
| 20260505173941 | 27 | 292 | 9.7 | 19.3 | 0.00 | 0.00 | 0.00 | 40 | 1013.2 |
| 20260505173856 | 26 | 265 | 8.0 | 16.1 | 0.00 | 0.00 | 0.00 | 44 | 1013.8 |
| 20260505173810 | 22 | 93 | 3.2 | 9.7 | 0.00 | 0.00 | 0.00 | 54 | 1011.3 |
| 20260505173746 | 22 | 130 | 3.2 | 9.7 | 0.00 | 0.00 | 0.00 | 54 | 1011.3 |
| 20260505173713 | 26 | 267 | 8.0 | 17.7 | 0.00 | 0.00 | 0.00 | 46 | 1013.7 |
| 20260505173544 | 22 | 160 | 3.2 | 9.7 | 0.00 | 0.00 | 0.00 | 54 | 1011.2 |
| 20260505173409 | 24 | 329 | 9.7 | 17.7 | 0.00 | 0.00 | 0.00 | 49 | 1014.0 |
| 20260505173347 | 22 | 157 | 1.6 | 9.7 | 0.00 | 0.00 | 0.00 | 54 | 1011.2 |
| 20260505173307 | 22 | 157 | 1.6 | 9.7 | 0.00 | 0.00 | 0.00 | 54 | 1011.2 |
| 20260505173225 | 23 | 311 | 8.0 | 17.7 | 0.00 | 0.00 | 0.00 | 50 | 1014.2 |
| 20260505173137 | 23 | 165 | 1.6 | 9.7 | 0.00 | 0.00 | 0.00 | 54 | 1011.2 |
| 20260505172934 | 23 | 142 | 1.6 | 4.8 | 0.00 | 0.00 | 0.00 | 55 | 1011.2 |
| 20260505172809 | 23 | 167 | 1.6 | 4.8 | 0.00 | 0.00 | 0.00 | 55 | 1011.2 |
| 20260505172744 | 23 | 167 | 1.6 | 4.8 | 0.00 | 0.00 | 0.00 | 55 | 1011.2 |
| 20260505172606 | 23 | 145 | 1.6 | 4.8 | 0.00 | 0.00 | 0.00 | 55 | 1011.1 |
| 20260505172447 | 23 | 145 | 1.6 | 4.8 | 0.00 | 0.00 | 0.00 | 55 | 1011.1 |
| 20260505172427 | 23 | 144 | 1.6 | 4.8 | 0.00 | 0.00 | 0.00 | 55 | 1011.1 |
| 20260505172312 | 23 | 144 | 1.6 | 4.8 | 0.00 | 0.00 | 0.00 | 54 | 1011.0 |
| 20260505171909 | 23 | 164 | 1.6 | 6.4 | 0.00 | 0.00 | 0.00 | 54 | 1011.0 |
| 20260505171833 | 18 | 282 | 6.4 | 16.1 | 0.00 | 0.00 | 0.00 | 58 | 1014.9 |
| 20260505171804 | 23 | 150 | 1.6 | 8.0 | 0.00 | 0.00 | 0.00 | 54 | 1011.0 |
| 20260505171708 | 23 | 121 | 3.2 | 8.0 | 0.00 | 0.00 | 0.00 | 54 | 1011.0 |
| 20260505171518 | 23 | 167 | 3.2 | 8.0 | 0.00 | 0.00 | 0.00 | 54 | 1011.0 |
| 20260505171349 | 23 | 167 | 3.2 | 8.0 | 0.00 | 0.00 | 0.00 | 54 | 1011.0 |
| 20260505171340 | 23 | 167 | 3.2 | 8.0 | 0.00 | 0.00 | 0.00 | 54 | 1011.0 |
| 20260505171216 | 23 | 166 | 3.2 | 8.0 | 0.00 | 0.00 | 0.00 | 54 | 1011.0 |
| 20260505171052 | 23 | 203 | 4.8 | 11.3 | 0.00 | 0.00 | 0.00 | 54 | 1011.1 |
| 20260505170701 | 23 | 180 | 4.8 | 11.3 | 0.00 | 0.00 | 0.00 | 53 | 1011.0 |
| 20260505170456 | 23 | 161 | 4.8 | 11.3 | 0.00 | 0.00 | 0.00 | 53 | 1011.1 |
| 20260505170433 | 17 | 309 | 6.4 | 16.1 | 0.00 | 0.00 | 0.00 | 63 | 1014.9 |
| 20260505170305 | 23 | 180 | 4.8 | 11.3 | 0.00 | 0.00 | 0.00 | 53 | 1011.1 |
| 20260505170256 | 23 | 133 | 4.8 | 11.3 | 0.00 | 0.00 | 0.00 | 53 | 1011.1 |
| 20260505170150 | 16 | 280 | 6.4 | 12.9 | 0.00 | 0.00 | 0.00 | 66 | 1014.9 |
| 20260505170057 | 23 | 141 | 4.8 | 11.3 | 0.00 | 0.00 | 0.00 | 53 | 1011.1 |
| 20260505165931 | 13 | 302 | 3.2 | 6.4 | 0.00 | 0.00 | 0.00 | 78 | 1014.8 |
| 20260505165852 | 23 | 107 | 4.8 | 9.7 | 0.00 | 0.00 | 0.00 | 53 | 1011.1 |
| 20260505165753 | 23 | 107 | 4.8 | 9.7 | 0.00 | 0.00 | 0.00 | 53 | 1011.1 |
| 20260505165701 | 24 | 153 | 4.8 | 14.5 | 0.00 | 0.00 | 0.00 | 53 | 1011.1 |
| 20260505165527 | 24 | 140 | 4.8 | 14.5 | 0.00 | 0.00 | 0.00 | 53 | 1011.1 |
| 20260505165408 | 24 | 127 | 6.4 | 14.5 | 0.00 | 0.00 | 0.00 | 52 | 1011.1 |
| 20260505165400 | 24 | 123 | 6.4 | 14.5 | 0.00 | 0.00 | 0.00 | 52 | 1011.1 |
| 20260505165233 | 24 | 184 | 6.4 | 14.5 | 0.00 | 0.00 | 0.00 | 52 | 1011.1 |
| 20260505164846 | 24 | 121 | 6.4 | 14.5 | 0.00 | 0.00 | 0.00 | 52 | 1011.2 |
| 20260505164751 | 24 | 111 | 4.8 | 14.5 | 0.00 | 0.00 | 0.00 | 52 | 1011.2 |
| 20260505164649 | 25 | 127 | 4.8 | 12.9 | 0.00 | 0.00 | 0.00 | 52 | 1011.1 |
| 20260505164501 | 25 | 144 | 4.8 | 12.9 | 0.00 | 0.00 | 0.00 | 52 | 1011.1 |
| 20260505164336 | 25 | 159 | 4.8 | 12.9 | 0.00 | 0.00 | 0.00 | 51 | 1011.1 |
| 20260505164219 | 25 | 134 | 4.8 | 11.3 | 0.00 | 0.00 | 0.00 | 51 | 1011.2 |
| 20260505164059 | 25 | 147 | 4.8 | 12.9 | 0.00 | 0.00 | 0.00 | 51 | 1011.0 |
| 20260505163809 | 9 | 289 | 1.6 | 4.8 | 0.00 | 0.00 | 0.00 | 86 | 1014.9 |
| 20260505163741 | 25 | 175 | 4.8 | 12.9 | 0.00 | 0.00 | 0.00 | 50 | 1011.1 |
| 20260505163639 | 25 | 142 | 4.8 | 12.9 | 0.00 | 0.00 | 0.00 | 50 | 1011.1 |
| 20260505163518 | 8 | 326 | 6.4 | 14.5 | 0.00 | 0.00 | 0.00 | 85 | 1014.8 |
| 20260505163416 | 8 | 314 | 4.8 | 8.0 | 0.00 | 0.00 | 0.00 | 85 | 1014.8 |
| 20260505163253 | 25 | 104 | 4.8 | 12.9 | 0.00 | 0.00 | 0.00 | 49 | 1011.1 |
| 20260505163239 | 25 | 88 | 4.8 | 12.9 | 0.00 | 0.00 | 0.00 | 49 | 1011.1 |
| 20260505163043 | 25 | 134 | 6.4 | 12.9 | 0.00 | 0.00 | 0.00 | 48 | 1011.2 |
| 20260505162951 | 8 | 322 | 0.0 | 3.2 | 0.00 | 0.00 | 0.00 | 85 | 1014.7 |
| 20260505162903 | 8 | 295 | 3.2 | 9.7 | 0.00 | 0.00 | 0.00 | 83 | 1015.0 |
| 20260505162852 | 8 | 254 | 3.2 | 9.7 | 0.00 | 0.00 | 0.00 | 83 | 1015.0 |
| 20260505162831 | 25 | 247 | 6.4 | 12.9 | 0.00 | 0.00 | 0.00 | 47 | 1011.2 |
| 20260505162740 | 25 | 157 | 6.4 | 12.9 | 0.00 | 0.00 | 0.00 | 47 | 1011.0 |
| 20260505162632 | 25 | 141 | 6.4 | 12.9 | 0.00 | 0.00 | 0.00 | 47 | 1011.1 |
| 20260505162553 | 9 | 309 | 4.8 | 8.0 | 0.00 | 0.00 | 0.00 | 82 | 1014.8 |
| 20260505162506 | 9 | 292 | 1.6 | 4.8 | 0.00 | 0.00 | 0.00 | 83 | 1014.8 |
| 20260505162432 | 26 | 128 | 6.4 | 16.1 | 0.00 | 0.00 | 0.00 | 46 | 1011.1 |
| 20260505162311 | 26 | 159 | 6.4 | 16.1 | 0.00 | 0.00 | 0.00 | 45 | 1011.0 |
| 20260505162300 | 26 | 171 | 6.4 | 16.1 | 0.00 | 0.00 | 0.00 | 45 | 1011.0 |
| 20260505162128 | 26 | 93 | 6.4 | 19.3 | 0.00 | 0.00 | 0.00 | 44 | 1011.1 |
| 20260505162010 | 26 | 114 | 6.4 | 19.3 | 0.00 | 0.00 | 0.00 | 43 | 1011.0 |
| 20260505161933 | 26 | 163 | 6.4 | 19.3 | 0.00 | 0.00 | 0.00 | 43 | 1011.0 |
| 20260505161838 | 26 | 184 | 6.4 | 19.3 | 0.00 | 0.00 | 0.00 | 43 | 1011.0 |
| 20260505161420 | 26 | 139 | 6.4 | 19.3 | 0.00 | 0.00 | 0.00 | 42 | 1011.0 |
| 20260505161339 | 9 | 277 | 0.0 | 4.8 | 0.00 | 0.00 | 0.00 | 83 | 1015.1 |
| 20260505161232 | 26 | 215 | 6.4 | 19.3 | 0.00 | 0.00 | 0.00 | 42 | 1010.9 |
| 20260505161220 | 26 | 154 | 6.4 | 19.3 | 0.00 | 0.00 | 0.00 | 42 | 1010.9 |
| 20260505161133 | 9 | 38 | 3.2 | 6.4 | 0.00 | 0.00 | 0.00 | 82 | 1014.9 |
| 20260505161023 | 26 | 156 | 6.4 | 19.3 | 0.00 | 0.00 | 0.00 | 42 | 1010.9 |
| 20260505160858 | 10 | 301 | 3.2 | 6.4 | 0.00 | 0.00 | 0.00 | 80 | 1015.0 |
| 20260505160817 | 26 | 194 | 8.0 | 19.3 | 0.00 | 0.00 | 0.00 | 42 | 1011.0 |
| 20260505160729 | 26 | 225 | 8.0 | 19.3 | 0.00 | 0.00 | 0.00 | 42 | 1011.0 |
| 20260505160616 | 26 | 209 | 6.4 | 19.3 | 0.00 | 0.00 | 0.00 | 41 | 1010.8 |
| 20260505160503 | 10 | 287 | 3.2 | 6.4 | 0.00 | 0.00 | 0.00 | 79 | 1015.2 |
| 20260505160418 | 26 | 184 | 8.0 | 17.7 | 0.00 | 0.00 | 0.00 | 42 | 1010.9 |
| 20260505160232 | 26 | 207 | 8.0 | 17.7 | 0.00 | 0.00 | 0.00 | 41 | 1010.9 |
| 20260505160220 | 26 | 151 | 8.0 | 17.7 | 0.00 | 0.00 | 0.00 | 41 | 1010.9 |